GFSGL_700_spd_039.txt.gz
Wind_Speed
27 24 24 25 23 22 23 21 20 18 16 16 13 10 10 10 11 12 15 21 20 19 17 15 12 11 9 8 8 8 7 8 10 13 12 13 14 13 15 16 16 17 18
26 28 28 28 26 26 25 22 21 21 18 18 16 13 12 12 14 14 14 19 22 22 21 21 18 17 15 14 12 10 11 12 10 10 17 15 15 16 15 15 17 17 16
25 27 28 28 28 27 26 23 21 20 19 19 20 18 15 13 14 15 14 15 19 21 23 24 23 22 19 18 18 17 15 15 15 15 14 18 19 18 17 16 16 16 16
25 24 24 24 24 24 24 23 22 21 21 20 20 20 18 15 16 18 18 17 18 20 22 23 24 24 22 22 24 22 23 22 20 20 18 18 19 19 20 18 16 18 17
25 24 22 22 21 20 20 22 22 21 22 22 22 21 19 18 15 17 19 20 19 20 23 23 24 26 26 25 27 27 27 28 27 26 25 24 21 21 23 21 19 19 19
25 25 24 23 22 21 20 21 23 22 20 20 21 19 19 17 16 15 16 19 20 21 24 26 26 26 28 30 30 31 32 32 33 31 31 30 27 25 26 23 20 20 21
16 20 23 26 28 26 25 26 27 25 24 22 21 21 19 18 17 17 17 19 19 19 21 25 29 30 30 31 33 35 37 37 36 37 37 35 33 30 32 30 24 22 21
17 17 21 21 21 27 31 30 30 30 29 26 25 23 22 21 21 21 21 23 25 26 25 25 27 30 33 35 36 38 40 40 40 41 41 40 37 34 37 35 30 26 24
23 22 22 20 17 16 19 31 34 34 33 32 30 28 27 25 25 28 31 32 32 32 33 34 34 33 34 35 39 41 41 43 41 43 43 43 42 40 40 38 35 29 26
36 31 28 25 23 21 18 17 23 36 37 36 34 32 31 29 30 32 35 39 39 39 40 40 41 41 43 42 41 43 44 44 43 42 43 46 45 44 44 40 36 32 30
26 26 30 29 27 25 24 24 23 23 31 39 39 37 34 33 34 35 37 41 39 41 41 40 42 42 46 49 50 50 47 46 47 47 46 47 48 48 46 43 38 37 36
29 31 34 36 34 33 32 32 31 30 29 31 36 38 38 37 38 39 41 41 40 42 41 38 42 44 47 49 51 51 52 54 55 54 53 53 52 51 50 46 40 45 41
39 36 33 34 35 34 35 35 36 36 34 33 32 38 41 40 40 41 42 41 43 45 43 44 46 48 50 51 51 51 51 53 56 61 62 60 57 51 47 50 44 45 44
40 40 34 32 31 31 32 32 33 34 33 33 32 34 38 42 41 41 41 43 44 46 47 49 51 51 53 50 47 44 46 50 52 54 59 63 64 59 51 51 48 47 43
41 40 38 34 33 33 31 31 31 31 31 30 28 28 33 37 39 41 42 42 42 42 40 38 37 38 40 43 47 49 50 52 53 56 57 60 63 61 54 47 50 45 44
30 30 35 37 36 34 33 34 32 29 28 28 27 28 28 30 31 32 30 28 28 31 35 39 43 47 49 52 56 59 56 55 54 51 56 60 64 63 59 53 48 40 29
28 27 30 35 40 35 36 34 33 30 26 26 25 26 27 26 24 24 26 29 32 35 40 44 49 55 59 60 62 64 65 60 57 59 61 63 57 64 64 56 54 30 36
26 29 29 33 36 35 34 33 33 31 28 26 25 22 21 23 25 26 28 30 35 40 45 49 52 55 58 60 62 64 64 63 62 61 66 67 71 70 63 61 49 33 31
24 23 24 27 28 31 28 28 28 27 26 26 25 24 25 25 26 28 31 34 40 45 50 51 52 53 54 57 59 60 62 60 61 59 61 59 69 80 62 59 30 21 31
22 20 22 25 28 30 30 30 30 30 29 27 26 26 27 28 29 31 32 35 37 41 45 47 48 49 49 47 45 40 39 41 49 50 54 58 58 50 39 24 14 29 31
25 25 25 28 30 32 32 32 32 30 29 28 28 29 29 29 29 29 30 32 34 37 40 39 38 36 32 29 24 15 17 24 33 25 30 54 53 21 7 19 20 29 17
28 29 31 32 32 31 31 30 28 29 31 29 28 28 26 26 26 27 27 27 28 28 28 27 26 25 23 24 23 26 30 31 18 7 2 8 9 15 14 18 18 14 18
28 33 35 34 32 29 28 28 27 25 23 22 21 22 23 22 22 23 22 21 19 19 19 21 21 19 18 16 14 17 20 17 17 16 11 5 11 19 15 15 15 15 13
26 26 27 28 22 20 21 20 19 19 20 21 21 22 22 22 22 21 20 21 20 19 19 21 20 17 15 12 10 11 7 9 4 2 5 9 11 11 11 9 8 12 16
34 30 28 26 22 18 18 19 19 19 20 21 22 22 22 24 24 23 23 24 25 26 24 22 20 20 13 11 8 4 3 6 5 7 10 11 9 8 10 12 14 16 18
28 28 23 18 18 17 18 19 20 21 22 22 23 24 26 28 29 31 32 31 31 30 26 20 19 20 17 15 13 12 11 8 8 8 8 9 10 11 13 15 19 21 22

GFSGL_700_spd_042.txt.gz
Wind_Speed
30 29 28 26 26 27 26 23 21 19 18 17 15 13 14 13 13 12 17 21 20 19 17 14 13 11 7 5 5 5 6 7 8 10 11 12 11 11 13 14 13 13 11
30 27 28 28 27 28 26 24 21 21 20 18 16 15 15 15 12 8 10 16 21 21 21 20 17 16 13 12 11 9 9 9 10 12 13 14 14 13 13 13 15 15 13
28 29 31 30 30 28 26 24 23 21 22 22 20 17 12 11 11 10 10 12 15 20 22 23 21 22 19 18 17 16 16 16 16 14 14 17 17 17 16 14 15 16 17
28 30 30 30 28 26 24 25 25 22 22 23 21 17 14 14 15 14 13 13 13 15 20 23 24 25 25 24 24 24 23 23 23 23 21 21 20 20 21 18 17 16 17
23 26 27 26 26 26 26 24 24 25 23 21 21 19 18 18 17 16 16 15 16 17 18 19 22 25 26 27 28 27 29 29 30 29 28 28 27 26 25 23 25 21 22
21 21 21 22 21 22 23 23 24 23 22 22 20 19 19 19 17 16 16 16 17 19 19 19 20 21 24 28 30 31 32 35 36 36 35 36 33 32 31 30 28 29 26
22 22 22 21 22 20 19 20 21 21 21 22 23 22 21 19 19 17 16 17 18 18 18 18 19 20 22 24 25 28 33 35 39 40 42 42 41 37 35 36 37 36 31
20 20 21 24 26 26 26 24 22 23 25 25 24 24 25 23 22 21 19 20 22 21 21 20 22 21 23 23 25 27 29 31 33 35 39 40 43 41 41 39 41 41 41
24 22 20 19 21 23 26 28 29 29 29 29 28 28 27 25 25 25 26 27 28 28 28 28 28 29 30 32 34 36 37 37 39 39 39 39 40 41 39 41 46 48 49
30 24 19 17 19 20 21 21 21 27 33 34 34 34 33 33 33 32 34 35 34 35 33 31 30 30 33 37 40 42 42 38 43 44 45 47 46 47 46 47 46 50 49
26 26 28 28 26 25 21 19 19 20 22 27 35 38 37 37 38 38 38 39 36 39 37 34 34 34 35 39 41 42 41 42 43 45 47 49 51 54 56 54 53 54 51
27 26 24 27 28 28 26 24 24 25 25 24 24 27 34 40 42 42 43 42 41 41 38 36 37 38 40 42 44 43 43 45 48 49 52 51 47 47 52 55 55 55 54
28 30 30 32 30 30 31 33 34 34 32 32 31 29 28 30 37 43 45 45 44 43 40 40 41 42 43 44 46 46 45 42 41 42 45 48 47 50 51 48 50 51 54
31 31 33 34 32 31 32 32 34 34 33 34 34 33 32 33 35 37 41 42 43 43 41 41 41 43 43 42 35 32 35 41 46 50 55 55 56 58 59 58 54 55 51
35 35 36 37 39 38 38 36 34 33 33 34 34 34 35 35 34 35 36 35 37 37 38 39 38 34 31 32 37 41 44 49 55 56 58 60 60 59 62 59 58 56 58
45 42 41 42 44 45 45 41 37 36 34 32 31 32 32 32 31 28 27 29 32 32 32 28 27 31 35 40 45 50 55 58 58 60 62 62 62 63 65 65 66 64 60
40 44 42 38 34 33 36 39 40 37 35 32 31 31 29 29 28 26 25 24 25 25 25 27 30 34 39 43 50 55 58 58 59 61 62 59 64 60 65 71 72 66 73
32 34 35 34 32 30 34 36 38 38 35 31 30 31 29 27 26 26 25 25 25 25 28 31 34 37 39 44 48 54 58 58 58 56 55 55 54 55 52 57 62 66 75
27 29 33 34 32 30 29 29 30 31 29 29 25 25 26 25 25 25 26 27 28 29 31 34 37 39 40 43 46 49 51 52 53 52 48 46 45 42 40 54 71 62 58
22 23 24 27 27 25 25 25 26 28 27 27 28 29 29 29 29 30 30 30 31 32 34 37 39 40 40 42 42 42 42 43 46 47 48 47 39 32 28 30 24 29 17
19 21 23 25 26 24 26 27 27 29 32 32 33 34 32 32 32 31 32 33 34 35 35 36 37 38 38 37 35 37 39 36 36 35 26 27 25 18 24 23 21 13 32
25 23 23 24 26 30 30 31 33 34 35 36 36 36 34 34 33 33 33 32 31 32 33 33 33 34 33 32 30 28 28 29 27 29 27 24 21 13 11 15 19 12 20
29 28 27 29 30 30 32 33 33 34 34 35 35 34 34 33 31 29 28 29 30 31 31 31 31 30 28 27 29 26 24 23 24 23 20 12 9 6 3 6 6 11 7
27 33 37 29 32 34 32 32 33 33 32 32 31 30 29 29 28 28 28 28 29 30 31 31 31 31 28 25 25 26 24 20 20 14 9 5 4 4 3 5 7 9 10
48 33 32 35 34 32 31 29 29 29 28 28 27 26 26 26 27 28 29 29 30 31 31 32 31 32 31 25 24 24 23 22 16 11 9 7 7 8 7 6 5 7 9
41 41 35 30 27 30 28 29 27 25 23 23 24 25 27 28 29 30 31 32 32 34 34 33 29 23 22 19 21 21 21 20 18 17 14 14 13 13 14 14 15 15 14

GFSGL_700_spd_045.txt.gz
Wind_Speed
26 28 30 31 30 30 29 28 25 23 22 20 18 16 16 15 16 18 21 21 20 18 17 14 12 10 9 8 6 5 5 5 6 8 7 7 7 9 10 11 12 13 13
22 27 28 30 32 32 30 29 27 25 24 22 21 19 17 15 13 14 18 23 23 22 21 19 16 16 15 14 13 11 11 12 13 11 14 14 12 12 12 12 13 14 15
22 27 30 31 32 33 31 29 29 27 27 24 23 20 17 16 14 13 15 17 20 24 24 23 21 22 20 20 19 19 18 18 19 19 17 19 20 20 20 18 18 18 19
25 27 32 31 31 30 29 29 29 27 27 25 24 21 20 19 19 17 15 14 14 16 21 25 25 25 25 24 25 25 26 26 26 26 25 24 26 25 25 25 24 26 26
25 28 30 30 30 29 28 28 28 27 25 23 24 23 22 22 22 19 17 15 14 15 16 18 20 23 26 29 30 29 30 31 32 32 32 32 32 32 31 31 33 33 33
20 22 25 26 27 28 27 26 26 26 26 24 23 22 22 22 20 19 18 18 17 17 18 18 20 21 22 24 27 29 31 33 36 37 37 38 36 37 38 39 39 42 44
17 14 14 18 21 22 22 24 24 23 23 24 23 22 20 20 19 18 18 19 19 19 19 19 20 20 20 22 24 26 29 31 33 35 38 38 38 37 36 39 41 44 45
18 18 17 16 16 16 18 19 20 21 20 21 22 22 23 22 21 20 19 20 22 20 20 20 21 20 21 23 24 26 27 29 31 33 37 36 37 38 41 41 40 45 46
19 18 18 18 20 22 23 22 21 22 22 22 22 23 25 24 24 23 23 24 24 24 23 24 25 26 27 29 32 34 36 35 39 41 43 45 46 47 49 51 52 52 54
23 22 17 15 15 16 14 17 23 29 30 29 29 29 29 29 29 29 30 30 31 31 30 30 30 30 31 33 35 36 34 33 37 38 39 40 42 43 46 52 54 59 59
24 28 24 20 17 16 17 19 19 22 24 27 31 33 35 35 35 36 37 39 38 38 36 34 34 34 35 36 36 36 35 37 41 42 43 46 48 48 45 46 48 50 56
32 31 30 26 22 21 20 22 23 22 23 24 24 25 28 33 37 39 39 41 41 43 41 40 39 39 39 38 37 38 38 40 40 42 44 44 44 46 48 49 50 50 47
34 28 31 30 26 26 25 23 26 27 26 25 24 25 26 27 29 31 33 38 42 45 44 43 42 42 40 38 38 36 38 38 34 36 40 45 51 56 57 60 60 61 61
34 36 38 37 35 34 32 31 28 34 26 29 29 29 29 29 30 32 34 35 36 38 40 41 41 38 36 36 34 35 29 30 37 43 49 55 59 62 63 63 65 62 64
35 36 37 36 36 37 37 33 30 30 31 29 29 29 29 28 28 31 33 34 34 35 36 34 32 30 31 31 27 25 29 34 40 46 53 59 61 61 61 57 60 61 64
34 32 34 35 36 36 37 37 37 36 34 37 33 31 31 30 30 31 32 33 32 29 28 27 26 25 24 24 26 29 33 38 45 50 55 59 59 55 57 57 54 52 50
29 34 40 41 38 40 40 41 41 42 42 36 35 34 33 32 31 31 30 30 28 27 26 25 23 22 24 28 30 34 36 42 48 52 56 55 54 56 55 55 53 51 54
28 27 28 33 42 48 50 48 44 38 36 35 35 36 35 32 30 28 28 27 27 27 26 24 25 27 29 31 34 37 40 44 49 52 51 52 51 52 48 45 44 45 48
31 29 26 29 33 37 37 37 37 36 34 35 36 34 32 28 27 27 26 26 27 27 27 28 29 30 32 34 37 40 42 45 49 50 50 51 46 42 43 38 33 32 31
24 25 25 26 28 31 36 36 35 34 30 28 29 28 27 25 25 26 27 27 29 30 31 32 32 34 36 37 40 40 42 45 45 45 45 45 44 41 36 29 29 33 26
23 18 18 21 21 23 25 31 26 28 25 28 29 28 27 28 29 30 31 31 32 33 33 34 35 36 36 38 39 40 41 41 41 40 39 37 35 33 31 29 29 19 13
21 25 27 22 18 16 16 19 23 25 25 27 29 31 32 32 32 33 33 34 34 34 35 36 36 35 35 37 39 38 37 38 36 35 33 32 28 23 22 20 19 17 25
26 28 28 25 25 25 24 23 27 29 30 31 32 32 34 35 35 35 33 33 33 34 34 33 33 34 35 37 37 38 38 37 34 29 28 27 20 15 15 15 15 14 7
27 30 32 32 37 32 33 36 29 31 33 34 32 31 31 31 31 31 31 32 32 32 32 33 34 34 34 35 37 39 38 37 31 26 26 22 17 13 13 15 14 10 10
41 39 38 39 36 32 32 30 29 33 36 34 32 31 30 29 29 30 30 31 32 33 33 34 35 36 38 40 39 38 34 27 24 23 22 19 17 15 14 13 11 8 6
36 37 37 35 37 39 42 35 33 32 31 29 29 29 30 30 30 30 30 31 32 34 35 36 37 36 37 36 31 26 24 23 22 23 22 21 19 19 18 16 15 13 14

GFSGL_700_spd_048.txt.gz
Wind_Speed
34 34 34 32 31 30 29 27 25 24 23 23 21 19 17 17 18 20 22 22 21 20 19 17 15 13 11 9 7 6 5 6 5 6 6 6 6 9 12 12 13 15 16
28 30 32 31 32 32 30 28 27 26 25 24 24 21 18 17 17 17 21 24 23 23 21 20 18 17 15 14 13 11 11 12 13 12 12 14 14 14 15 17 18 19 19
25 29 29 31 33 32 30 29 29 28 27 26 26 23 20 18 17 19 19 22 25 25 25 24 22 22 20 19 18 18 18 19 20 21 19 20 21 24 25 23 24 25 26
28 27 29 30 31 31 30 30 30 29 28 27 25 23 21 21 19 19 20 21 21 22 26 26 25 26 25 24 24 23 24 25 27 28 28 27 27 27 31 30 31 32 34
30 30 28 29 29 30 30 30 30 30 28 26 26 25 24 24 22 22 21 19 19 19 19 20 22 25 26 27 28 26 28 30 31 32 33 34 31 32 34 35 38 37 40
32 30 27 25 27 28 28 29 29 28 27 25 25 25 25 25 24 22 20 19 18 18 17 17 19 20 21 22 25 26 29 31 33 34 34 36 35 35 34 37 39 40 43
21 21 22 23 25 26 26 27 27 27 27 26 24 24 23 22 22 22 22 22 21 20 19 19 19 20 21 22 23 25 27 29 31 32 31 31 31 33 36 39 40 42 45
21 20 18 18 21 23 24 24 24 25 25 25 24 22 21 20 20 21 21 23 23 21 21 20 21 20 21 22 22 23 23 27 30 33 37 36 39 40 44 47 49 52 52
23 19 19 17 17 19 20 19 19 19 19 19 19 20 20 19 20 20 21 23 24 23 21 22 22 22 22 24 27 30 31 33 36 38 41 43 43 42 46 49 48 51 52
23 18 20 20 20 20 18 18 18 19 19 20 20 20 21 22 22 23 24 26 27 27 25 26 26 26 28 31 33 35 34 32 35 34 33 33 36 36 38 43 48 51 53
25 24 22 18 16 14 13 12 14 17 20 23 26 27 27 28 29 29 30 31 31 31 31 31 32 33 34 36 36 36 36 35 35 35 33 36 38 36 37 39 46 47 50
29 27 24 21 20 20 18 19 21 23 23 23 24 25 28 29 31 32 33 35 35 36 37 37 37 38 38 39 40 39 37 35 35 35 36 38 32 35 42 50 53 57 57
32 30 28 26 25 26 25 25 24 23 25 24 25 23 21 21 23 25 28 30 32 34 36 38 39 40 41 42 41 39 36 34 32 35 31 28 33 40 48 54 58 60 59
39 35 33 31 29 30 30 29 24 22 22 29 25 21 21 22 24 24 25 27 29 31 33 33 34 34 35 36 36 33 31 30 29 26 29 32 38 44 50 57 61 60 60
32 34 34 33 32 32 32 31 29 26 28 25 25 24 23 22 24 27 27 27 27 29 31 32 31 30 31 31 28 27 29 25 25 29 33 36 42 47 53 55 57 57 56
27 29 31 34 36 36 35 35 34 33 30 28 28 31 28 28 28 29 29 27 27 28 29 28 28 29 26 24 26 24 23 25 27 31 36 40 44 49 55 57 54 50 53
31 31 32 33 33 35 37 37 36 35 35 34 33 35 33 36 33 31 29 28 29 29 29 27 25 25 26 26 23 23 24 26 29 33 37 41 45 50 55 53 50 50 47
28 25 24 27 32 36 40 41 41 40 40 40 39 38 39 36 34 32 31 31 30 29 28 26 25 23 23 24 25 26 27 28 31 35 38 42 45 50 51 47 44 44 43
28 31 26 23 25 27 29 31 35 42 46 46 46 41 35 33 34 33 32 30 29 28 28 26 25 25 26 27 28 29 30 32 34 36 39 43 46 47 44 41 40 45 41
24 25 24 23 22 24 24 25 27 30 33 35 35 34 32 28 28 28 28 27 26 25 25 26 28 30 31 30 30 31 33 33 36 38 40 43 44 43 41 39 43 39 36
21 20 20 16 18 16 16 18 20 24 27 30 32 32 29 28 26 27 27 27 27 28 29 31 32 32 32 32 32 34 34 35 37 39 41 41 39 37 37 36 33 33 29
21 23 22 24 21 11 9 9 10 12 14 19 25 27 24 28 29 28 31 30 30 31 31 32 33 32 32 32 33 34 34 36 38 40 40 39 36 35 35 31 30 28 24
25 26 24 21 19 14 12 14 17 18 19 21 22 23 25 28 29 31 32 33 33 34 33 32 31 31 32 33 34 35 36 37 38 39 39 37 36 34 29 27 26 21 18
31 28 26 26 27 23 19 20 23 25 26 28 29 29 30 30 30 31 32 32 31 30 31 31 32 32 33 35 36 37 39 39 40 38 36 32 28 25 24 23 21 20 22
41 37 33 32 32 30 25 20 27 28 26 27 27 29 33 34 34 32 31 30 31 32 32 32 32 33 35 35 36 37 39 38 37 34 33 29 25 24 23 22 19 20 20
46 49 47 41 38 34 28 30 28 30 29 26 28 29 28 32 32 32 31 31 32 32 33 34 34 35 34 34 34 32 31 33 34 34 33 28 25 24 20 21 20 23 19

GFSGL_700_spd_051.txt.gz
Wind_Speed
33 34 35 35 34 34 33 30 27 25 24 22 19 18 19 17 18 20 21 21 21 19 17 15 14 14 12 11 8 7 7 7 6 7 7 8 9 12 14 16 17 19 20
33 35 35 35 35 35 34 32 30 28 26 23 22 22 20 19 20 20 23 24 24 25 22 20 18 17 15 14 13 12 12 13 13 12 14 15 15 18 19 21 23 24 26
35 35 36 36 37 36 34 33 32 30 28 26 25 24 21 21 21 20 21 24 26 28 27 26 23 23 20 19 18 17 17 19 21 21 19 22 21 23 26 28 29 31 33
33 37 38 37 36 35 34 34 33 32 30 28 27 25 24 23 23 22 22 22 24 27 28 28 27 27 25 24 23 23 23 24 27 28 27 27 28 28 31 32 36 36 38
36 32 35 34 34 35 35 34 33 34 31 29 28 27 26 25 25 23 21 21 21 21 24 27 28 28 27 27 28 26 28 29 30 32 32 32 31 31 33 34 37 37 38
37 33 30 32 33 34 34 34 34 32 32 31 29 28 28 26 24 22 21 22 21 20 20 20 21 23 25 27 28 28 29 30 31 31 31 30 28 31 32 33 37 39 41
35 33 31 31 32 34 32 34 34 32 31 30 28 27 26 24 24 23 22 23 22 21 19 19 19 19 20 21 22 24 26 27 28 28 25 27 29 32 36 38 42 44 44
34 33 31 32 31 32 33 33 31 30 30 28 26 24 23 23 21 21 23 25 25 24 23 22 22 22 22 22 23 24 25 26 27 29 32 32 35 38 41 41 41 41 41
31 34 28 30 33 31 30 31 29 29 28 27 26 25 23 22 21 22 24 26 26 24 23 24 24 23 23 24 27 27 25 28 31 33 35 38 40 41 43 44 43 44 43
32 25 27 25 25 27 27 27 26 26 25 26 26 24 23 22 22 24 26 28 28 25 23 24 24 25 25 26 29 32 33 32 35 37 37 34 34 34 35 39 39 41 45
33 30 25 22 23 22 22 22 23 22 22 23 22 22 22 22 22 23 25 27 26 25 26 26 27 27 29 32 35 37 38 37 37 38 38 36 32 31 32 29 34 42 49
36 30 28 27 27 26 26 26 26 25 25 25 26 26 25 26 27 29 29 30 29 31 30 30 32 33 35 37 39 39 40 41 41 40 40 36 33 33 28 30 37 43 48
37 35 31 30 30 29 28 25 24 23 24 24 25 25 27 28 28 29 30 31 31 32 32 31 32 33 34 34 36 37 38 39 39 38 37 32 30 26 29 33 38 45 51
38 36 33 36 33 31 30 27 27 27 23 24 24 26 26 23 22 22 23 24 24 26 27 28 31 32 33 33 33 35 36 35 33 32 29 28 24 27 31 36 40 47 53
42 40 38 38 35 35 34 31 32 29 27 26 23 23 22 23 22 23 24 24 26 26 27 29 30 31 31 32 31 31 30 27 26 27 25 23 26 29 32 37 43 48 53
44 43 43 42 35 28 26 27 32 33 31 29 27 26 27 28 28 26 24 25 28 30 29 28 29 31 31 30 28 27 25 26 25 23 23 25 28 31 34 38 43 48 52
30 35 29 33 34 30 25 25 25 26 31 33 31 30 29 29 31 31 29 29 31 31 30 29 31 31 30 29 27 26 27 25 24 25 26 28 31 33 36 40 44 48 48
30 36 29 17 23 20 22 25 27 28 31 31 30 31 33 35 36 35 35 35 33 32 32 31 31 31 28 26 26 26 25 26 27 28 29 30 33 35 38 41 46 48 46
25 26 24 25 27 27 27 29 32 34 37 38 37 37 38 39 40 40 39 38 35 35 35 33 30 29 28 27 26 26 27 28 30 30 30 31 34 35 38 41 45 44 41
29 29 30 31 30 26 25 28 29 30 32 34 37 41 43 43 44 43 41 37 36 35 31 31 30 27 25 24 26 28 30 30 30 30 32 33 35 37 39 42 43 41 39
27 26 25 23 21 21 21 23 26 28 28 28 28 30 32 34 36 35 33 30 30 29 28 27 27 26 26 28 30 30 31 31 31 31 32 33 35 37 39 41 41 40 39
24 22 20 18 18 17 18 20 23 24 20 16 15 17 18 23 21 24 27 28 29 28 28 28 28 30 31 32 33 33 32 31 32 32 33 34 35 37 39 38 39 38 34
24 23 22 18 18 21 23 25 23 20 16 12 11 13 16 16 21 26 30 31 30 30 31 32 33 34 35 35 34 33 32 32 33 34 35 36 37 37 36 36 36 32 27
26 25 23 23 22 22 23 25 25 24 22 19 16 16 17 20 23 25 27 29 32 33 34 35 35 35 35 34 33 32 32 33 34 35 36 37 36 36 35 34 31 26 25
33 35 34 28 26 27 29 32 33 32 29 28 25 23 22 24 26 28 30 33 35 37 37 37 36 35 34 34 33 33 33 33 33 34 36 36 37 36 34 30 26 23 23
43 42 39 38 34 34 34 33 34 36 38 39 35 28 27 29 30 33 35 35 35 35 36 36 36 34 34 34 34 34 34 33 33 33 34 34 33 30 28 26 24 24 24

GFSGL_700_spd_054.txt.gz
Wind_Speed
32 35 36 37 36 34 34 32 30 28 27 23 20 18 17 16 14 14 16 17 17 15 13 13 12 13 12 11 10 8 7 7 6 7 8 10 12 15 18 20 21 24 27
28 30 33 35 37 37 35 33 32 30 28 25 23 21 19 19 17 15 17 20 21 20 19 17 15 15 14 14 13 11 11 12 12 11 14 16 18 20 23 26 29 31 34
27 26 30 35 37 38 36 34 34 33 31 28 26 24 22 21 20 18 18 20 24 23 24 22 20 20 18 17 16 16 16 17 18 20 19 22 23 26 28 29 33 35 37
31 30 28 32 34 35 34 35 35 34 33 31 29 26 25 25 24 21 20 20 24 26 26 27 27 26 24 22 21 21 22 24 25 26 26 26 27 27 30 30 31 35 37
29 32 31 31 33 33 34 35 35 36 34 32 31 29 28 28 26 24 22 22 22 23 25 29 29 29 28 27 27 26 27 27 28 29 29 30 29 28 30 31 33 34 36
29 30 33 31 34 34 35 36 36 36 35 34 32 31 30 30 28 25 24 24 23 22 22 23 26 28 29 28 29 29 29 30 30 31 30 28 27 29 29 32 35 38 37
32 31 31 31 32 36 36 36 37 37 36 35 33 32 31 30 27 25 25 25 24 24 23 22 22 22 22 24 24 25 26 27 27 26 22 24 27 30 34 36 38 40 39
36 35 32 29 27 31 35 36 37 37 37 36 34 32 31 29 28 27 26 27 27 25 24 23 22 21 21 21 21 23 25 26 27 27 25 26 30 33 37 39 39 40 39
39 37 34 30 31 29 32 35 35 35 36 35 33 31 30 27 27 26 27 29 28 25 24 24 23 23 22 21 24 25 26 26 28 29 30 33 35 38 42 45 43 44 40
39 38 39 34 31 29 30 30 33 34 32 32 32 30 28 27 28 27 28 30 28 25 25 25 24 23 23 24 26 27 29 31 32 34 36 38 41 42 41 42 42 40 40
40 39 39 37 36 31 34 36 35 36 34 33 32 30 29 28 28 29 30 31 28 25 24 24 24 24 25 26 29 33 34 35 37 40 43 44 44 44 41 37 34 36 36
43 40 39 29 32 30 28 30 36 35 33 32 31 30 30 30 29 30 31 30 27 26 25 25 26 28 28 31 35 37 38 40 42 43 43 43 43 40 33 31 34 31 35
43 44 34 32 30 29 27 29 33 32 32 31 31 31 31 30 29 29 29 30 30 31 31 30 31 32 32 35 36 34 36 37 37 37 37 36 34 29 27 29 28 30 33
45 45 41 39 36 34 33 34 34 35 35 35 34 33 32 30 30 31 31 32 33 34 32 29 28 28 29 30 31 32 34 36 38 37 32 29 28 26 25 24 26 31 35
49 48 46 41 39 38 37 38 38 37 36 33 30 28 27 26 25 23 25 27 27 26 25 27 29 30 29 29 31 32 35 37 38 34 28 25 24 21 23 25 28 31 36
51 50 48 46 44 41 39 40 40 38 36 34 32 31 29 29 28 27 28 28 26 26 27 29 29 31 32 32 33 34 35 36 34 30 26 24 23 23 24 26 30 33 36
48 53 52 49 46 45 43 44 44 43 42 38 37 35 31 29 29 31 32 29 28 29 30 29 32 33 35 35 34 35 34 33 30 28 27 25 25 25 26 28 30 33 36
39 39 41 39 44 43 45 41 41 48 30 29 31 32 31 29 30 32 35 34 33 33 33 33 34 36 38 37 35 34 31 30 29 28 27 27 28 28 29 30 31 33 35
35 28 32 29 29 32 35 26 38 38 32 28 28 31 33 34 35 36 38 38 37 36 36 36 37 35 36 35 34 32 32 32 29 28 29 29 30 31 30 32 33 34 35
28 26 27 24 20 26 24 29 32 37 33 33 32 34 35 36 38 39 40 41 39 38 40 41 37 36 35 33 32 32 31 29 29 30 31 32 33 32 32 33 34 35 37
20 20 20 21 21 23 25 26 25 24 29 29 32 34 36 37 40 43 44 42 41 41 41 39 35 30 29 34 33 30 29 30 31 32 33 34 34 33 33 33 34 36 37
20 20 22 22 22 22 22 24 24 26 27 29 32 34 36 35 35 36 37 38 36 35 32 30 30 29 29 29 30 31 32 33 34 34 34 34 34 34 34 34 35 35 36
20 20 21 21 22 22 22 23 25 27 27 26 27 29 29 29 28 27 27 25 24 24 25 27 27 29 31 32 33 35 35 35 36 35 35 34 34 34 34 32 33 35 36
23 24 23 24 22 24 26 27 27 26 25 24 24 24 24 24 23 22 22 25 27 27 27 28 29 31 32 34 35 36 35 36 36 36 35 35 34 34 33 32 32 33 34
35 31 29 27 25 25 27 28 29 29 29 29 28 27 26 27 26 24 23 23 26 28 29 30 33 34 35 35 35 34 34 35 35 35 35 36 35 34 34 33 32 32 31
43 41 38 35 33 31 30 32 34 35 35 33 33 33 34 34 34 35 35 34 32 31 33 35 36 37 39 37 37 37 36 34 34 34 35 35 35 35 35 34 34 32 26

GFSGL_700_spd_057.txt.gz
Wind_Speed
31 31 31 33 36 36 34 32 30 27 25 23 20 19 17 15 14 13 13 13 12 11 9 10 11 10 10 9 8 6 4 4 6 7 9 12 13 15 18 23 28 31 34
26 29 31 32 34 36 36 33 32 31 28 24 23 22 20 18 16 15 16 17 15 15 13 12 12 12 12 11 10 9 9 10 11 12 14 17 20 23 25 26 27 29 32
24 25 28 32 35 37 37 35 34 32 30 27 26 24 22 21 18 16 16 17 18 18 18 18 16 16 14 14 13 13 14 15 17 19 19 21 23 25 28 28 30 30 31
26 26 25 30 32 36 37 36 35 33 32 29 27 26 24 24 21 19 17 18 20 19 21 21 21 21 19 18 18 17 19 21 22 24 24 24 24 24 27 27 28 30 34
29 26 25 23 29 32 36 35 35 35 33 30 29 28 26 26 25 22 20 19 20 19 19 23 24 24 23 23 24 23 25 25 26 26 26 26 27 27 28 28 30 32 35
28 27 26 28 27 29 32 35 35 36 34 32 32 30 29 28 27 24 22 22 22 21 20 22 21 24 24 25 25 26 26 26 26 27 27 27 26 26 26 29 32 33 37
33 30 29 27 28 26 29 33 35 36 35 34 33 32 31 29 29 26 24 25 25 24 23 23 23 22 21 22 25 25 25 25 24 23 24 22 24 26 29 32 35 38 39
36 35 31 27 24 28 27 33 34 35 35 35 33 33 31 30 30 28 26 26 28 27 25 24 24 23 23 22 21 23 22 22 22 23 22 24 28 31 35 37 40 43 43
39 37 34 32 26 25 24 29 32 33 34 35 33 32 33 31 29 28 29 29 31 29 27 25 24 24 23 21 22 22 22 22 23 25 28 30 32 35 38 43 44 48 49
41 38 36 37 33 27 24 21 25 29 30 31 31 32 32 30 29 28 30 31 33 30 27 26 24 23 21 21 23 23 24 24 27 30 33 36 38 41 43 47 48 47 44
32 38 41 38 39 32 29 27 24 24 27 30 31 31 31 30 29 29 30 33 33 29 26 25 24 23 22 23 25 26 28 29 31 34 37 39 41 44 46 44 38 37 35
35 34 44 42 41 39 34 30 29 29 29 29 31 33 32 31 31 32 33 35 33 30 26 26 26 25 24 24 26 28 31 34 36 38 41 42 41 41 41 40 32 28 28
39 33 38 47 44 42 37 34 33 36 38 37 36 36 34 33 33 33 33 34 34 33 30 29 28 27 27 26 28 32 35 37 37 37 38 37 36 36 36 36 31 26 23
45 38 35 46 43 43 38 39 32 33 33 36 38 36 35 34 33 32 32 33 34 33 30 30 30 30 32 33 33 31 32 33 34 36 35 35 35 33 30 28 28 23 24
53 46 40 45 43 40 37 36 33 31 32 35 35 34 33 32 31 29 30 31 32 32 33 33 33 34 33 31 30 30 32 33 33 33 34 34 32 31 27 27 24 25 27
49 46 41 48 46 43 40 35 35 35 34 34 35 34 33 35 30 31 31 31 30 32 33 31 29 29 28 29 31 32 34 35 35 36 34 32 31 27 29 26 25 27 29
38 44 47 51 49 47 44 40 40 37 37 39 39 35 32 30 28 30 29 29 31 30 29 30 31 30 26 28 30 33 35 37 37 37 34 31 27 28 28 26 27 29 31
34 43 40 38 45 52 50 48 46 42 41 43 39 38 36 33 33 31 31 31 34 34 32 33 33 31 32 32 32 35 37 37 38 35 32 29 29 27 28 28 29 31 32
34 35 36 40 41 49 46 47 43 45 43 41 42 39 37 34 34 35 35 33 36 38 37 36 36 37 36 35 35 37 36 36 36 33 33 32 29 28 29 30 30 30 31
39 38 29 28 40 39 38 33 38 27 36 44 44 43 33 30 30 34 35 35 37 42 37 37 41 42 41 40 38 38 39 38 32 32 33 31 28 29 31 31 31 31 31
22 28 23 26 29 29 27 36 42 39 31 38 47 46 53 35 36 36 36 38 40 42 41 43 45 44 44 44 42 41 40 35 35 32 29 29 30 31 32 33 33 33 33
20 18 23 23 29 33 40 28 28 39 38 45 44 38 36 39 38 37 38 40 42 44 46 45 47 45 43 42 37 34 34 35 36 33 32 33 34 34 35 34 33 34 35
19 23 24 19 28 31 30 34 32 36 40 39 37 36 38 35 31 32 34 37 38 39 41 40 38 36 33 32 32 31 33 34 34 35 36 36 36 37 35 34 33 32 31
25 26 20 23 22 28 33 35 35 35 35 37 35 38 36 33 32 31 31 31 32 32 32 33 32 29 31 33 31 32 31 35 37 38 37 37 37 37 36 36 32 31 31
26 29 28 30 31 29 24 25 27 30 33 33 34 34 34 31 32 31 31 32 31 29 32 34 34 33 33 32 31 32 32 33 34 34 35 37 37 38 37 37 35 33 31
38 37 33 30 30 33 37 43 40 32 32 31 32 35 34 36 35 36 36 34 33 34 34 34 35 35 33 33 34 34 34 34 35 35 35 37 39 40 41 38 37 35 33

GFSGL_700_spd_063.txt.gz
Wind_Speed
30 28 27 27 29 28 25 22 20 17 17 13 9 8 7 6 6 7 7 8 9 8 8 8 9 11 13 12 9 8 7 5 3 1 3 7 10 15 18 21 21 18 18
28 28 29 27 28 30 30 26 23 21 21 18 13 12 11 9 8 8 8 8 9 10 9 10 10 10 10 9 8 7 5 5 5 4 6 8 11 15 17 17 18 17 20
30 30 29 30 30 29 30 28 27 25 24 23 19 15 14 12 11 11 11 10 10 10 11 11 11 12 12 11 9 9 8 9 10 10 9 11 13 15 16 19 18 19 23
27 27 25 28 30 29 28 29 29 28 27 26 24 21 17 15 15 14 14 14 11 11 12 13 14 14 14 14 13 13 14 14 14 15 15 15 14 15 18 18 18 21 24
30 32 27 21 28 31 30 29 29 29 28 27 26 25 24 21 19 18 16 15 15 13 12 14 16 16 17 18 18 18 18 18 18 19 18 19 17 16 16 17 20 23 25
32 29 30 27 23 27 30 29 30 28 29 29 29 28 27 26 23 20 19 18 17 17 16 14 15 16 17 19 20 20 20 20 19 19 19 18 15 15 17 19 23 27 31
29 30 30 28 27 24 25 29 29 30 29 30 31 30 29 27 25 24 23 21 21 19 18 18 17 16 16 17 18 19 19 19 19 19 18 15 15 15 19 21 24 28 33
30 27 29 30 29 28 27 25 26 29 30 29 30 31 31 29 27 26 25 25 24 23 21 20 20 19 18 18 18 19 18 17 16 17 17 15 16 18 21 25 28 30 32
30 28 31 31 30 30 29 27 27 25 25 29 29 30 31 30 29 27 27 28 25 24 23 22 22 21 19 20 21 20 19 17 16 17 18 19 19 20 24 29 31 34 31
27 22 27 30 31 31 29 27 27 28 26 22 27 29 30 30 29 28 28 28 28 26 24 23 23 22 20 20 22 22 20 14 16 17 17 18 20 23 27 31 34 32 32
34 29 30 28 29 31 33 30 28 27 28 28 26 28 30 30 30 29 29 30 29 27 27 25 24 23 22 21 22 22 22 19 19 19 20 21 23 25 29 30 29 29 30
37 36 32 30 29 30 34 33 31 30 26 25 27 29 31 30 30 30 31 31 28 30 30 27 25 24 23 23 23 23 21 20 19 20 22 23 26 28 27 26 26 27 29
41 42 37 36 35 33 33 35 34 36 33 27 24 21 25 29 30 29 29 29 29 31 31 28 27 25 23 24 25 25 23 22 22 23 24 27 28 26 24 26 25 27 26
37 41 41 38 37 34 32 35 37 37 40 36 33 27 21 23 28 29 28 28 29 30 30 29 27 27 25 26 27 26 25 24 24 25 26 26 25 24 24 25 26 27 23
39 37 41 41 39 37 36 34 35 38 41 43 38 34 29 24 23 23 24 24 25 26 26 30 31 30 27 25 27 27 26 25 26 26 25 25 23 22 23 27 29 27 24
41 36 38 42 43 43 42 38 36 37 40 44 43 39 34 30 28 30 32 29 26 26 31 32 30 30 28 26 27 27 27 27 26 23 23 22 22 23 26 30 31 29 26
40 38 39 40 44 46 46 44 42 40 38 44 44 43 38 35 33 30 28 26 24 28 33 32 28 28 27 27 28 29 29 27 23 23 23 23 25 26 29 32 31 31 26
36 36 38 41 41 42 46 47 46 44 40 38 44 43 41 39 32 29 26 24 25 28 29 28 28 28 28 29 29 27 24 24 25 25 25 25 27 29 32 34 36 31 28
34 38 41 44 47 45 43 44 46 47 44 40 44 42 41 39 33 30 26 26 28 28 28 28 28 30 30 27 24 24 22 24 24 24 26 30 32 32 33 36 40 30 27
29 32 44 50 48 48 50 45 43 44 44 44 43 41 43 41 36 32 32 31 32 33 32 33 36 36 32 28 23 20 25 26 28 30 32 33 34 35 39 39 35 24 25
35 22 25 42 42 49 46 45 44 42 41 36 40 44 45 44 38 37 35 34 37 39 37 39 49 28 14 24 24 26 28 30 31 32 34 36 37 39 39 29 32 29 26
29 37 38 39 30 54 45 46 45 47 47 47 44 45 48 44 39 37 34 33 31 41 41 43 39 40 37 31 29 30 33 40 34 34 35 37 36 38 27 29 29 25 26
24 22 28 27 23 14 27 43 41 46 44 44 40 46 41 41 36 37 33 30 33 41 42 37 34 31 37 39 41 40 36 35 34 32 34 33 30 28 33 31 29 28 29
21 23 13 14 22 24 28 30 22 28 38 40 40 41 32 44 32 35 50 41 41 39 45 42 33 31 29 32 35 24 31 27 30 30 31 28 28 34 34 30 30 30 30
25 23 18 16 15 11 5 6 12 7 16 30 38 38 27 29 32 31 31 30 33 33 34 31 30 32 30 22 27 32 29 35 27 30 30 34 39 39 34 32 31 29 30
24 26 21 22 19 15 12 7 7 6 5 7 9 9 14 20 19 20 25 22 23 26 26 22 25 26 22 25 27 28 28 33 33 35 36 38 39 36 33 31 31 32 33

GFSGL_700_spd_066.txt.gz
Wind_Speed
32 32 31 31 29 28 26 22 20 19 17 15 16 16 13 12 12 11 11 10 8 7 8 10 11 13 15 17 15 11 9 8 7 4 2 3 7 10 13 15 17 17 15
32 33 32 31 33 32 30 25 22 20 19 17 16 16 15 14 13 12 12 11 12 10 9 10 13 15 14 13 13 11 10 10 8 6 6 8 9 13 14 14 15 16 15
32 34 34 33 34 35 34 31 28 25 23 20 18 17 17 14 13 13 13 13 13 14 14 12 14 16 17 16 15 14 13 13 12 11 11 11 10 15 15 17 16 14 17
31 32 35 36 35 34 35 35 33 30 29 26 22 19 18 18 17 16 15 14 14 15 16 17 17 15 16 17 17 17 17 15 14 14 13 13 13 15 17 18 13 15 16
31 33 34 35 35 36 36 38 37 35 33 31 29 25 22 21 21 19 18 16 16 15 16 18 19 19 20 20 20 19 19 18 18 18 17 17 15 16 17 15 15 18 18
34 36 32 33 35 34 36 37 38 37 36 35 34 31 28 26 24 22 21 20 20 19 18 18 18 21 22 22 23 24 24 24 23 23 21 18 16 17 16 13 16 20 23
34 34 32 29 34 32 31 37 37 37 38 37 36 35 33 31 28 25 24 24 23 22 21 21 20 20 20 21 22 23 25 25 24 24 22 18 17 15 13 13 17 22 24
42 30 29 27 26 32 34 31 35 36 37 36 36 36 36 33 32 30 28 28 27 26 25 24 24 23 22 22 22 23 22 22 20 21 20 16 17 12 13 16 19 23 25
43 35 27 25 21 27 33 34 31 32 35 35 33 34 36 35 34 33 32 33 31 28 27 27 27 26 24 24 25 25 24 22 20 21 21 18 16 14 16 18 19 24 26
48 42 36 29 26 26 32 31 31 33 31 30 31 31 32 35 35 35 35 35 34 32 30 30 29 28 27 26 28 27 26 22 21 23 23 20 16 14 16 19 22 25 24
50 47 40 33 31 23 22 28 29 34 33 34 32 29 29 32 34 35 36 37 35 33 33 32 31 30 28 27 28 29 26 24 22 23 21 17 15 16 18 21 24 23 22
41 50 36 37 34 31 25 26 26 32 34 35 33 34 34 32 34 34 36 37 35 35 35 32 31 30 30 29 30 28 27 27 25 24 20 17 17 18 20 22 23 22 22
48 48 47 42 40 34 31 28 27 28 35 36 35 29 29 33 33 34 35 36 36 37 35 33 31 31 29 30 31 29 27 26 24 23 20 18 19 21 22 20 22 22 21
37 51 41 42 34 33 36 32 32 31 32 38 38 34 27 23 22 27 34 35 35 36 35 34 33 32 33 32 31 30 29 27 25 25 22 21 23 23 20 20 19 20 20
27 42 43 36 37 39 40 42 39 34 32 31 38 40 37 31 25 20 23 30 32 32 30 31 33 33 33 32 30 30 30 30 29 27 25 24 23 22 19 18 18 19 21
27 28 39 39 37 41 44 44 41 38 35 32 31 36 42 41 38 32 26 23 25 26 31 34 35 35 31 31 31 30 31 31 30 28 28 28 25 23 20 18 19 19 20
36 30 35 38 40 38 41 44 43 41 38 36 34 34 37 43 44 41 37 35 34 36 40 40 39 35 32 31 32 32 33 32 30 31 32 30 28 26 24 21 21 23 23
45 39 34 35 37 42 45 43 42 42 42 41 39 38 35 36 43 45 42 40 40 38 37 36 36 33 29 30 29 29 29 30 31 31 31 31 29 27 25 23 25 25 25
55 49 46 38 35 41 46 45 43 37 37 40 42 42 39 34 38 46 44 43 38 36 35 34 28 26 28 30 32 32 30 29 30 31 31 30 29 28 24 25 27 28 30
54 58 50 45 41 45 44 45 44 45 42 41 41 41 43 40 37 41 44 42 36 32 28 31 31 32 35 38 39 39 37 32 30 34 32 29 28 26 27 27 27 29 32
48 46 39 37 39 44 46 47 50 49 49 49 43 41 41 41 35 39 43 43 39 38 34 33 32 34 36 35 32 41 46 58 67 67 22 23 24 27 29 29 31 31 34
36 37 44 44 38 39 42 47 48 53 54 54 51 44 42 41 40 43 45 46 42 40 37 36 36 33 31 33 37 32 33 27 28 35 20 22 30 31 31 32 33 31 28
38 28 31 29 30 33 40 43 42 48 53 58 49 44 43 42 41 47 45 48 43 37 35 32 25 24 30 32 33 31 27 20 15 12 24 32 36 37 35 33 33 29 28
42 19 27 26 32 35 28 23 22 18 31 45 42 41 36 40 42 48 52 54 48 40 38 38 33 39 27 28 26 24 22 20 21 25 32 40 42 37 31 28 26 28 28
36 33 24 13 2 18 37 49 39 23 26 35 42 43 37 31 36 36 43 44 43 51 45 35 27 23 19 19 18 20 18 20 21 21 24 25 24 27 26 25 29 29 27
25 21 28 26 14 5 2 4 8 19 24 28 21 22 25 25 24 28 31 37 42 26 15 17 24 24 20 23 21 23 27 26 25 27 24 23 26 26 28 27 28 27 27

GFSGL_700_spd_069.txt.gz
Wind_Speed
24 26 28 27 26 24 24 22 19 17 18 16 17 17 16 15 14 12 11 11 10 9 10 13 14 14 18 21 20 17 15 14 13 11 10 8 7 7 10 13 14 14 14
20 26 28 29 29 28 25 23 22 20 19 16 16 17 18 16 16 15 14 13 12 10 10 11 12 14 16 19 19 17 15 15 14 13 11 10 9 11 13 13 13 15 14
21 25 29 30 31 31 29 26 25 24 23 21 19 19 18 17 15 15 15 15 14 13 13 12 13 16 18 19 19 18 17 17 15 15 14 12 12 15 16 17 16 13 14
25 24 27 31 31 31 32 31 30 28 27 27 25 23 22 20 18 16 17 17 16 17 17 16 16 17 19 20 21 20 20 19 19 18 17 16 16 17 19 19 14 15 12
33 30 28 26 30 32 32 34 33 33 31 30 29 28 26 24 22 21 20 19 19 19 20 20 20 20 20 22 23 23 24 23 23 22 20 19 17 19 22 20 18 14 12
37 33 31 29 27 31 33 34 36 36 36 35 34 32 31 29 26 25 24 24 23 22 22 22 23 24 24 25 26 25 25 25 25 25 24 23 21 21 22 21 18 17 15
39 35 32 30 28 26 29 32 35 36 37 38 37 37 36 34 31 29 28 28 27 26 25 24 25 24 25 26 27 28 29 29 29 28 28 25 25 23 23 19 17 18 18
39 37 31 28 29 29 29 31 32 34 35 37 39 38 38 38 35 33 32 32 32 30 29 28 28 27 27 26 27 28 28 27 27 27 27 23 24 21 22 19 17 19 17
34 36 35 33 32 30 33 34 30 31 32 32 35 37 37 36 36 36 36 36 36 35 33 31 31 30 29 28 30 29 29 27 26 26 25 24 23 21 20 20 18 21 21
42 41 37 36 32 30 32 34 31 27 26 28 30 33 34 33 34 35 37 39 40 38 36 35 33 32 30 31 32 32 32 28 28 27 28 28 25 21 20 22 21 21 21
37 32 33 36 38 34 31 31 32 32 28 29 30 29 30 29 31 34 36 39 41 40 38 37 34 33 32 32 33 35 33 30 30 30 30 31 27 22 22 23 22 22 23
35 42 39 37 39 37 35 29 29 30 33 33 34 35 34 33 30 29 33 37 39 41 39 36 36 34 34 34 35 35 34 35 35 33 31 29 25 22 23 24 22 23 25
23 32 38 38 36 38 39 35 33 30 33 35 36 36 36 37 35 34 33 32 35 39 39 37 35 34 35 36 37 37 36 38 35 35 30 28 25 24 26 24 23 24 25
19 24 32 39 34 44 48 42 34 32 32 31 35 36 35 34 34 34 35 35 35 37 37 36 35 36 37 38 38 38 38 36 34 34 30 28 27 27 28 26 25 25 24
31 27 35 46 51 44 52 49 37 36 32 31 30 33 33 36 34 34 32 31 34 35 35 35 36 38 38 37 36 35 34 35 34 32 30 30 28 30 31 28 27 25 22
44 30 34 41 36 40 44 42 39 39 38 35 33 32 30 31 35 39 37 34 33 32 35 37 38 38 37 35 35 33 33 34 34 33 32 32 32 34 34 30 29 26 23
42 51 46 30 29 27 42 48 46 40 40 36 34 33 32 32 31 35 41 43 40 35 35 34 35 35 34 34 34 35 35 33 35 36 37 37 37 37 36 33 31 29 26
39 45 47 46 33 24 29 41 46 43 42 39 35 36 36 36 36 34 33 37 45 45 42 39 36 36 38 40 39 39 38 37 35 37 38 39 38 38 36 35 32 31 29
43 45 44 51 45 34 30 33 42 45 48 45 39 41 41 39 39 40 38 35 39 45 47 48 43 39 39 37 37 37 37 35 34 36 38 38 40 40 36 30 32 33 34
44 43 50 47 46 43 43 39 36 36 44 49 46 43 41 38 39 40 40 37 34 40 45 45 46 41 37 38 36 35 36 35 35 33 36 37 37 39 38 39 40 33 39
48 47 48 52 56 54 55 52 46 43 43 42 44 44 46 45 39 40 41 37 39 39 38 41 42 38 37 38 37 35 35 37 37 34 39 37 39 43 52 64 74 82 37
42 43 45 50 62 62 58 58 55 51 48 44 47 45 45 47 46 45 43 40 41 42 43 41 42 38 39 38 38 37 36 34 37 32 30 34 37 39 44 35 16 50 22
37 37 40 43 41 49 53 60 57 47 45 45 49 51 52 52 52 51 49 45 44 43 43 42 41 40 40 41 40 38 34 33 31 31 30 31 27 23 11 13 14 18 27
34 36 34 37 38 40 43 47 41 36 38 42 49 51 53 54 50 54 47 49 50 46 47 47 48 49 45 37 34 31 28 30 31 34 35 34 28 19 21 26 24 26 28
27 32 30 27 16 23 31 33 38 35 33 35 33 31 29 37 41 49 47 43 41 42 45 43 39 39 39 41 37 38 37 29 29 31 30 31 25 24 24 21 25 24 20
27 26 22 26 40 15 12 13 27 30 35 32 32 31 29 42 50 42 35 35 42 40 32 47 39 40 32 40 47 43 45 40 29 27 22 24 20 22 21 23 24 27 28

GFSGL_700_spd_072.txt.gz
Wind_Speed
19 17 20 21 20 20 20 19 18 18 20 20 17 17 17 15 13 11 10 8 6 7 9 12 17 17 17 19 19 18 17 15 14 14 13 13 13 13 13 14 17 17 17
20 20 20 21 22 24 22 21 21 20 19 19 17 18 18 17 16 14 12 10 10 9 9 9 13 16 16 19 21 20 18 17 17 16 16 16 14 15 15 15 18 19 20
25 23 23 23 24 25 25 24 23 23 23 21 19 18 17 17 17 16 15 14 12 12 11 10 11 13 13 17 20 21 20 19 19 18 18 17 17 17 18 20 22 20 20
30 30 30 26 25 25 25 26 27 26 26 26 24 22 20 19 19 19 19 17 15 14 14 13 13 13 13 15 18 20 21 21 20 20 20 19 19 20 23 24 21 21 19
32 32 31 28 27 26 28 26 28 29 29 28 28 27 24 23 23 22 21 21 19 18 17 17 16 17 17 18 20 21 23 23 23 23 23 23 22 23 25 27 26 22 18
32 35 32 33 32 30 29 28 28 29 31 31 32 32 30 28 26 26 26 25 23 22 22 21 21 21 21 21 22 23 25 26 26 27 27 26 25 26 28 28 27 25 21
25 29 33 31 34 35 32 31 30 29 30 32 33 35 34 33 31 29 29 29 29 27 26 25 26 25 25 25 26 27 28 29 29 30 29 29 28 28 29 28 28 26 23
31 26 25 28 32 35 36 33 31 30 31 31 33 35 35 35 34 33 32 33 33 32 30 29 29 29 28 28 29 30 30 30 30 31 31 28 27 27 28 28 26 24 23
37 33 32 32 32 34 36 35 31 32 32 31 31 34 37 35 34 33 34 37 37 36 35 34 33 32 31 30 32 31 31 29 29 29 29 29 27 27 28 28 26 25 24
36 37 35 32 30 31 32 34 33 33 32 32 32 32 34 35 33 32 34 36 39 39 38 38 37 35 32 32 34 34 34 29 31 31 31 31 31 30 29 28 28 26 25
28 32 38 35 32 33 32 34 33 33 33 36 34 32 32 31 31 31 32 35 37 37 37 38 38 36 34 34 35 36 35 31 34 35 34 34 33 33 29 28 29 30 28
20 22 32 36 32 31 29 31 30 28 28 32 33 34 34 31 29 29 29 31 33 35 36 36 36 36 35 35 38 37 36 37 38 38 37 33 32 31 30 30 30 33 30
23 20 19 25 36 35 32 31 33 32 31 30 33 38 36 35 34 32 32 31 31 31 30 32 33 35 36 37 38 38 39 41 40 40 38 32 31 31 33 32 32 34 31
26 29 20 13 21 32 29 31 34 40 35 33 33 37 38 36 36 34 33 34 34 34 32 30 29 31 34 36 38 40 41 41 40 40 37 34 33 32 33 33 34 35 33
38 35 34 21 19 20 28 31 39 39 38 35 33 33 36 34 33 30 30 30 33 33 33 34 33 33 34 35 35 36 38 38 39 40 39 36 34 34 33 33 35 37 35
37 44 40 37 23 36 27 34 42 34 38 45 38 34 35 32 30 31 32 32 32 33 34 34 31 30 31 34 34 33 35 36 37 38 39 38 36 36 35 36 37 39 38
38 35 40 48 45 38 34 34 29 34 37 39 40 37 34 35 34 32 29 28 34 40 38 35 33 32 30 28 29 32 32 31 32 37 38 39 39 39 40 39 40 42 39
46 45 43 43 43 43 44 41 37 35 37 43 45 40 37 38 36 36 33 32 32 32 39 43 42 40 38 36 32 28 29 31 33 37 39 41 42 43 43 42 42 42 41
47 49 50 51 50 47 48 50 48 36 43 46 46 49 40 38 37 34 34 35 36 36 37 36 38 45 44 43 40 37 35 36 36 38 41 41 41 41 41 39 40 41 40
45 44 47 51 51 52 53 51 51 48 41 33 33 41 42 39 39 39 38 36 35 37 38 35 32 32 35 44 47 45 44 41 40 39 39 39 37 36 37 36 34 31 34
47 45 46 50 51 52 51 55 53 55 52 44 40 35 31 29 33 40 42 40 37 35 36 35 36 37 35 37 43 45 46 44 41 41 39 37 37 38 38 39 39 42 42
43 44 46 49 52 55 53 51 54 56 53 49 44 43 39 36 34 38 43 44 44 43 41 38 39 41 40 40 42 43 45 45 41 41 40 39 38 37 37 40 43 45 47
40 42 43 44 48 53 56 54 54 56 57 53 48 50 47 45 42 41 43 42 43 44 46 44 44 43 43 42 41 43 45 44 42 42 43 41 40 43 41 42 44 43 41
32 37 40 40 40 40 51 53 55 54 60 56 53 53 51 53 45 42 41 41 43 47 51 50 48 49 47 47 41 45 47 47 47 45 43 44 45 43 44 46 44 37 38
32 32 30 32 34 33 34 43 48 47 47 52 47 47 42 40 40 43 43 45 46 46 47 49 47 47 48 46 45 45 47 48 48 42 45 51 46 47 49 41 33 38 34
28 30 26 23 23 26 26 22 24 29 31 38 39 35 36 34 35 38 39 38 35 39 37 36 33 37 37 35 40 43 46 47 47 46 52 51 42 42 42 44 47 46 34

GFSGL_700_spd_075.txt.gz
Wind_Speed
21 17 14 14 14 15 17 17 16 16 17 17 15 14 15 16 13 10 8 6 6 5 7 10 14 14 17 19 20 20 19 19 17 15 15 15 15 16 17 18 21 21 21
24 22 18 16 17 17 18 18 19 18 17 17 18 18 17 18 16 13 12 10 8 8 7 8 11 14 16 20 22 22 21 21 19 18 18 18 17 18 19 20 21 22 23
28 27 25 22 21 20 18 20 20 20 20 20 18 18 17 20 20 17 16 14 13 11 10 9 11 12 15 18 21 23 23 22 22 20 19 19 19 19 20 22 22 23 25
30 29 30 27 25 24 22 23 23 23 23 23 22 21 20 19 20 20 18 17 16 15 14 13 13 13 13 15 19 21 22 23 22 21 20 20 20 21 23 25 25 25 26
31 30 32 30 31 26 27 27 26 26 27 26 26 26 25 23 21 20 20 19 18 18 18 18 17 16 16 16 17 18 21 22 23 23 22 22 22 23 25 27 29 29 27
26 28 31 33 35 34 33 32 32 31 30 29 30 30 29 28 25 23 23 23 22 22 22 22 21 21 19 19 20 21 23 24 25 26 26 26 24 26 28 29 30 30 28
29 30 29 34 34 33 33 34 34 34 33 33 32 32 32 32 30 28 27 28 28 27 26 25 25 24 23 24 24 25 26 27 28 28 28 27 27 28 30 30 30 30 27
32 32 26 23 29 33 35 36 35 35 36 35 34 34 33 33 32 32 31 32 34 33 32 30 29 28 28 27 28 29 29 29 30 31 30 29 29 29 29 29 28 26 25
34 32 29 24 24 24 30 35 36 37 37 35 34 35 35 33 33 33 34 35 37 37 36 35 34 33 31 30 32 32 32 30 30 30 31 29 28 28 29 29 27 28 26
29 35 35 29 27 28 25 32 35 38 38 37 35 33 32 31 32 33 35 38 39 39 39 39 38 36 34 33 35 35 35 31 32 33 33 32 32 30 31 30 29 28 29
24 31 33 35 27 30 31 29 34 38 39 39 37 35 33 29 28 29 33 37 38 38 38 39 39 38 37 37 37 39 37 33 35 37 36 35 34 33 33 32 31 29 29
23 22 23 31 39 40 35 35 35 37 38 41 39 39 37 34 31 30 30 33 34 36 36 36 36 36 35 38 40 39 38 38 40 40 37 35 35 33 32 32 33 32 31
25 22 24 21 26 28 35 32 35 35 38 35 34 34 34 35 32 32 32 31 31 31 30 31 32 33 34 35 38 39 40 42 42 41 40 36 34 34 34 32 33 34 34
25 26 23 22 21 20 26 34 33 30 38 39 36 35 32 32 33 34 34 35 36 35 31 31 30 30 32 34 35 38 41 41 41 41 40 38 35 35 33 32 34 35 37
36 31 28 28 28 23 22 21 21 26 36 36 38 39 36 34 30 32 33 32 34 35 35 35 36 35 35 36 34 34 36 37 39 38 38 37 37 36 35 34 35 36 39
44 42 39 37 35 34 30 28 25 19 19 28 38 37 37 35 30 31 34 33 34 34 35 33 32 31 31 31 31 30 32 34 35 36 36 37 37 37 36 36 38 39 39
49 48 44 42 38 40 43 39 33 31 28 22 31 33 33 34 35 32 33 35 30 34 37 36 33 30 29 27 27 27 25 27 30 34 35 36 35 35 35 36 37 38 39
56 54 51 48 45 39 37 43 43 43 31 39 33 31 36 32 42 43 37 38 35 35 35 36 37 37 38 37 36 36 33 29 29 31 32 33 34 35 36 37 38 38 39
58 59 57 55 52 50 45 43 39 46 40 35 36 33 37 41 35 37 39 38 39 35 37 39 38 36 37 38 39 42 42 40 37 34 32 32 35 38 40 41 41 40 38
57 56 58 58 57 57 53 49 47 44 53 46 39 35 36 35 48 41 42 41 36 35 37 33 34 37 36 36 34 35 41 46 45 44 42 38 38 39 41 42 41 41 38
51 52 53 56 57 56 57 56 56 53 49 56 48 44 41 41 37 40 45 43 40 42 40 36 35 37 37 37 38 37 37 35 38 43 47 47 44 42 42 43 41 39 38
41 47 51 54 54 55 56 56 56 53 55 56 51 50 47 51 48 41 39 38 33 41 36 40 44 40 40 40 40 40 39 40 40 43 45 45 45 45 44 43 42 42 43
38 39 46 48 49 52 55 56 57 56 54 54 55 52 53 50 55 51 46 43 39 42 40 40 45 45 44 45 45 46 44 45 45 45 44 48 47 47 45 43 45 45 45
35 36 37 37 42 46 49 53 54 54 55 56 55 55 52 51 50 53 50 47 47 42 39 39 44 45 44 45 47 47 46 48 48 44 46 48 47 48 46 46 48 50 51
28 34 37 34 30 33 42 44 48 49 50 54 53 53 51 49 46 50 52 50 49 48 46 41 41 44 45 47 48 50 50 54 53 49 48 48 50 51 51 52 53 52 49
22 25 31 36 31 28 28 34 40 43 40 42 44 47 46 44 41 42 47 48 45 42 39 40 42 44 43 40 40 34 36 41 40 41 42 45 48 52 55 55 51 49 50

GFSGL_700_spd_078.txt.gz
Wind_Speed
21 20 18 15 11 13 15 16 15 15 16 15 13 11 10 10 10 9 8 7 6 6 6 9 12 13 16 18 19 20 20 19 18 17 16 16 15 16 18 19 20 21 23
24 24 22 21 20 16 15 15 17 16 16 16 16 16 14 12 12 12 11 10 9 8 7 7 10 12 14 18 19 22 22 22 21 20 19 18 18 18 20 20 20 21 23
28 27 27 25 24 20 16 15 17 18 18 18 17 16 16 15 16 16 15 13 13 12 10 9 10 10 13 17 19 22 23 24 24 23 21 20 20 21 20 22 23 23 24
30 30 30 29 28 25 21 19 19 20 21 21 21 20 19 17 17 18 19 16 15 15 15 12 13 12 12 14 18 21 23 25 25 23 22 21 21 21 22 23 24 25 26
29 31 31 29 30 28 29 29 25 25 24 24 25 25 24 23 20 19 18 17 17 17 17 17 16 15 15 15 15 17 20 22 23 23 23 22 22 23 24 24 27 28 27
28 29 30 32 32 33 31 30 32 31 29 28 29 29 29 28 26 24 21 21 21 20 19 19 19 19 19 18 18 19 19 20 20 22 23 24 24 26 27 27 28 28 28
30 32 34 35 36 36 35 33 33 34 33 34 33 32 32 32 30 28 26 26 26 25 24 23 22 23 21 23 22 23 23 23 23 24 25 25 26 26 28 29 30 28 27
28 28 32 34 30 32 34 34 33 31 35 35 34 34 34 34 33 32 31 31 32 31 30 28 28 27 26 26 26 27 26 27 27 26 27 27 27 28 28 29 29 26 26
27 30 30 32 32 34 32 38 37 38 36 34 33 34 35 34 33 33 33 36 37 36 34 33 33 31 29 29 30 31 30 28 29 29 28 28 28 27 29 29 27 28 26
17 22 33 35 37 39 36 32 32 38 40 40 39 36 35 33 33 33 34 38 40 39 38 37 37 36 34 32 34 34 35 30 31 31 34 31 31 32 31 31 29 29 29
21 21 22 26 41 45 33 32 30 31 36 41 42 39 34 33 33 33 35 38 38 37 38 39 39 38 38 38 38 39 37 34 37 37 38 36 34 32 31 31 30 30 30
24 25 24 23 22 30 36 39 37 33 33 36 41 41 39 36 34 33 33 34 34 36 35 35 36 37 37 38 40 42 41 41 43 43 42 40 35 34 33 34 32 28 31
30 31 28 27 27 25 26 35 37 36 33 38 43 44 41 39 38 37 37 36 36 38 34 31 31 32 34 35 37 40 42 45 45 45 44 41 39 36 36 36 35 32 32
37 33 30 33 30 29 28 28 27 30 39 40 49 43 44 39 40 40 39 37 36 37 34 33 31 30 29 31 33 35 39 41 43 43 42 41 39 38 38 36 35 35 35
45 43 40 34 37 33 30 28 26 26 30 34 33 42 48 41 39 40 40 38 34 34 33 34 34 35 34 34 35 36 36 36 39 40 40 39 39 39 38 35 36 35 36
50 50 48 46 41 41 40 37 32 29 29 28 37 49 47 38 43 43 39 36 35 34 34 36 34 34 36 37 36 34 35 36 37 36 36 37 37 36 36 36 36 36 35
57 55 55 54 51 49 46 43 41 38 34 31 28 30 36 36 39 40 36 38 35 34 36 37 36 35 34 35 34 30 30 29 32 32 31 33 35 35 34 34 34 34 33
55 56 55 57 58 58 56 53 50 47 43 37 36 34 31 29 29 34 36 37 38 35 34 35 34 35 35 34 35 36 36 33 32 31 30 31 31 32 33 32 33 32 32
44 54 59 58 58 62 60 59 57 52 49 48 47 43 40 37 39 32 40 42 35 34 38 32 37 35 36 34 34 35 38 40 41 40 38 38 37 37 35 34 34 35 35
38 39 50 59 59 59 63 63 61 58 54 50 42 48 49 46 40 39 38 32 40 34 31 37 38 35 37 37 39 40 39 38 38 40 39 41 42 43 43 42 41 40 41
39 40 39 48 57 57 60 63 64 64 62 59 54 48 44 50 45 39 37 40 37 38 36 36 40 44 42 41 36 37 38 39 41 41 42 41 37 40 45 46 47 47 47
36 37 39 38 46 52 54 59 62 64 66 65 60 57 52 47 53 51 45 42 44 41 41 41 42 45 41 45 40 38 40 42 43 42 43 44 44 42 44 45 47 48 49
34 36 38 39 41 47 49 53 58 60 61 66 69 66 62 59 54 50 52 47 47 50 45 41 39 40 41 41 43 40 46 43 48 49 47 47 48 47 47 46 45 46 48
31 32 35 38 40 42 44 48 52 57 58 60 63 66 64 60 59 56 52 53 50 51 54 48 45 44 42 45 45 44 47 49 51 53 53 52 50 46 47 48 49 51 50
27 28 28 32 37 41 41 40 43 49 53 55 57 61 62 60 58 59 55 56 54 51 51 53 54 50 48 47 49 45 47 47 47 50 52 52 51 49 49 49 50 50 51
29 27 25 25 29 34 39 40 38 37 45 49 51 54 57 58 56 58 57 56 54 51 49 49 54 53 51 53 54 51 45 44 47 50 49 54 55 54 49 45 47 46 46

GFSGL_700_spd_081.txt.gz
Wind_Speed
20 19 17 15 13 13 14 15 15 15 14 16 14 9 8 7 6 7 6 7 5 5 6 6 9 12 13 12 12 13 15 15 15 14 18 16 15 16 16 18 19 20 24
22 22 20 19 18 17 15 15 15 15 15 14 16 13 12 11 10 8 8 8 8 7 6 7 6 9 11 13 15 18 19 23 22 20 19 19 20 20 19 19 20 20 22
27 25 25 23 22 21 18 17 16 16 16 16 16 15 15 15 15 12 12 11 10 10 10 9 8 8 9 12 15 18 19 22 24 24 22 21 22 23 23 21 21 22 22
23 28 28 26 24 24 25 22 20 19 19 19 19 18 18 16 17 17 16 15 15 14 13 13 11 10 9 9 12 16 18 21 22 23 23 22 22 22 23 23 22 23 25
36 24 22 30 28 29 27 26 26 25 22 22 22 22 22 21 20 20 18 18 19 18 17 16 15 12 11 12 11 12 14 17 19 21 22 23 22 22 21 23 25 26 26
31 31 33 32 33 33 30 30 29 28 27 27 26 26 26 25 24 22 21 20 19 19 19 19 18 17 15 14 14 15 14 15 16 17 18 20 21 22 23 26 26 27 27
36 34 33 34 35 35 34 31 35 32 31 27 29 30 30 29 28 27 25 25 25 24 22 22 22 20 19 19 18 18 19 19 19 20 20 21 23 23 26 27 28 28 27
24 33 37 35 37 37 36 34 36 34 34 36 32 31 31 30 29 29 29 29 30 29 28 27 26 25 24 24 22 23 22 21 21 23 23 22 24 24 25 27 27 26 24
13 23 30 35 39 39 40 39 35 37 38 38 34 31 31 31 31 30 30 33 35 34 32 31 31 30 27 26 30 28 27 26 26 25 25 25 25 26 27 29 27 27 26
17 17 17 29 33 34 35 36 35 33 34 39 39 39 37 33 31 32 32 34 37 37 35 36 35 34 33 32 33 32 33 28 31 30 32 30 29 28 29 31 29 30 28
23 23 22 21 22 32 37 38 39 39 37 37 40 42 42 41 38 37 35 36 37 38 38 37 36 35 36 37 37 38 34 33 36 38 37 36 36 34 31 30 29 29 29
30 29 28 28 27 24 23 31 38 37 36 34 36 37 38 40 41 41 39 36 37 38 38 37 37 37 37 36 36 37 39 39 40 43 42 39 38 38 36 36 38 35 30
37 36 35 33 31 31 29 26 28 36 45 49 44 43 40 34 35 37 42 40 38 39 38 37 36 37 37 36 34 34 36 41 43 42 40 39 39 38 38 39 37 40 37
36 39 41 40 39 37 37 33 31 31 36 44 44 43 44 40 36 38 43 43 43 43 42 42 40 38 37 34 35 33 34 36 38 38 38 37 37 38 37 38 38 36 37
39 39 39 43 45 45 42 40 39 36 34 34 37 43 49 49 46 44 45 48 47 39 45 45 40 37 37 36 35 35 34 34 35 35 36 34 32 33 33 33 35 35 35
34 40 43 45 46 50 49 46 43 42 39 36 36 35 36 38 38 42 46 49 48 49 54 30 33 36 38 37 37 38 38 37 37 36 36 35 35 34 33 34 35 34 32
31 33 37 44 50 50 52 55 53 48 47 46 41 39 38 35 33 43 46 43 46 51 50 48 35 35 35 35 35 36 38 35 33 33 31 33 33 30 29 30 33 34 32
34 37 38 38 43 50 53 54 56 59 57 53 50 46 42 39 37 34 36 43 42 45 51 49 36 40 35 34 34 37 36 34 35 33 34 32 32 34 34 36 36 33 30
35 37 40 42 42 44 49 56 59 61 62 63 59 54 47 47 45 41 38 35 35 34 36 42 42 46 35 34 33 34 31 32 33 32 31 32 33 34 36 37 38 39 37
34 36 37 40 42 44 46 50 56 60 61 64 68 65 60 55 52 51 47 42 38 36 35 39 43 50 41 41 33 36 35 34 34 33 32 32 31 31 31 31 36 40 41
39 39 38 38 40 42 46 48 49 56 63 66 65 68 71 66 59 54 55 53 49 44 39 42 35 43 39 42 43 45 39 34 35 33 34 33 34 36 36 36 35 36 39
38 41 43 41 41 42 44 48 50 50 55 61 64 63 66 71 67 62 56 52 49 48 47 39 37 36 42 41 43 45 43 40 40 42 35 37 38 38 39 42 41 41 43
36 39 41 43 44 43 45 47 51 51 50 54 59 62 63 65 71 69 65 62 55 50 50 48 42 42 42 45 43 43 43 44 46 47 48 49 43 43 42 43 44 46 47
36 38 39 39 41 41 44 46 48 51 52 53 55 60 60 63 64 70 71 66 63 59 53 49 50 45 47 48 45 42 43 47 47 51 53 56 52 50 50 50 48 47 50
37 39 36 35 35 36 39 43 46 46 49 52 51 52 56 58 62 62 66 72 68 66 63 57 52 52 50 50 49 49 46 45 45 44 45 46 47 52 53 55 52 52 53
33 39 41 36 33 32 33 35 39 43 46 49 52 47 50 53 56 60 59 61 69 71 68 64 58 54 55 53 52 52 52 50 52 51 48 46 46 47 49 53 54 56 57

GFSGL_700_spd_084.txt.gz
Wind_Speed
22 20 18 16 15 14 13 12 11 11 13 13 9 6 6 6 6 6 4 2 2 2 4 3 7 13 15 15 15 15 26 26 26 20 19 13 12 12 13 15 17 18 19
23 23 22 20 18 16 14 13 12 12 13 14 12 11 9 10 9 6 7 6 6 6 4 4 4 7 11 14 14 15 15 24 30 27 21 18 17 17 18 17 17 19 19
25 24 21 22 19 16 16 16 14 14 14 14 14 12 12 13 13 10 9 10 10 9 7 7 6 5 6 10 13 15 15 16 18 20 20 19 19 19 20 19 18 18 19
30 29 24 24 21 17 20 18 17 18 16 16 16 16 14 14 13 13 13 12 13 13 12 11 9 7 7 8 8 10 12 15 16 17 18 18 20 20 21 20 18 19 21
30 20 23 24 24 22 22 22 21 23 21 20 19 18 17 16 15 14 15 14 14 16 15 14 13 11 10 11 10 9 9 10 13 15 16 17 18 18 19 19 21 22 21
30 25 23 22 22 25 27 26 24 23 23 22 23 21 21 21 17 17 16 17 17 15 15 17 16 15 13 15 14 13 13 13 12 14 14 15 14 17 18 21 22 23 22
24 23 28 29 26 24 29 30 28 27 26 26 24 24 24 23 22 21 20 20 20 21 20 18 19 19 18 18 18 17 17 17 17 17 17 16 18 18 22 23 23 24 22
31 31 33 33 33 32 31 31 32 30 29 29 29 26 27 27 24 24 24 25 25 25 25 25 24 22 22 23 21 20 20 20 20 21 21 18 20 20 23 24 25 24 22
17 25 32 37 40 38 35 34 35 34 34 32 30 28 28 26 27 28 28 29 30 28 28 28 29 29 25 24 28 30 26 24 23 24 25 24 22 23 24 26 25 28 25
13 13 14 14 18 28 35 39 38 38 37 35 34 34 32 33 32 32 32 33 34 33 32 32 31 31 30 31 33 32 33 31 33 31 30 28 27 26 25 27 27 28 29
20 20 19 19 19 18 18 23 31 35 38 36 35 33 31 31 36 36 36 37 37 36 35 34 33 33 32 33 34 37 36 35 34 37 38 35 33 32 29 28 28 31 30
29 28 28 26 25 25 23 21 20 23 33 38 38 37 37 36 34 35 35 36 39 40 39 37 36 36 36 35 35 35 36 36 38 39 41 38 35 34 32 32 31 30 30
31 33 33 33 33 32 30 30 27 26 26 26 36 41 41 39 40 37 36 35 35 37 40 40 40 38 40 39 38 35 34 34 36 40 41 38 35 33 32 31 31 33 33
28 28 29 33 36 37 37 36 35 33 33 32 31 31 36 42 46 46 44 42 39 38 38 38 42 44 41 42 43 40 39 38 37 38 39 37 34 33 31 29 30 28 30
26 28 29 31 32 34 38 41 42 41 40 40 38 37 37 36 37 42 43 43 44 45 41 40 44 44 43 44 44 45 44 40 39 37 36 36 34 32 30 28 28 27 29
18 18 20 21 23 28 34 38 40 44 47 48 45 44 43 42 41 39 41 46 52 54 52 49 45 45 46 45 45 48 43 43 43 41 39 37 36 35 32 31 30 30 28
23 23 22 21 22 24 27 30 33 39 45 48 51 52 49 48 45 42 41 41 40 44 44 44 44 44 45 48 48 45 41 43 41 41 40 39 34 31 26 25 24 25 25
25 27 27 27 29 30 31 32 34 36 38 44 51 55 57 56 50 48 46 45 41 38 38 42 45 47 47 44 44 39 33 40 41 37 33 32 31 31 27 26 25 25 26
26 29 30 31 32 34 36 37 38 40 40 43 46 50 55 58 62 57 53 50 47 43 39 34 33 37 38 37 40 47 49 43 39 48 26 29 28 29 28 26 25 25 25
26 30 33 36 39 41 42 42 42 43 45 44 47 49 50 57 62 63 65 58 54 50 44 43 39 36 37 35 36 44 46 42 33 30 32 31 28 27 27 25 24 23 23
28 30 32 34 37 41 44 45 48 48 47 48 48 50 52 54 59 63 63 66 63 58 54 50 48 46 41 39 39 41 44 54 53 42 38 32 32 28 23 26 27 26 26
28 31 34 37 39 40 43 46 48 50 52 53 52 52 53 56 58 58 61 62 62 64 64 63 56 52 47 44 41 39 41 45 51 49 42 43 36 36 32 29 29 30 31
27 31 34 38 40 43 44 46 49 51 53 55 57 56 56 57 57 58 59 63 65 68 69 70 62 56 52 51 49 42 43 43 47 46 47 43 42 43 43 40 38 33 35
27 30 33 36 40 42 44 46 48 50 52 54 55 56 56 56 56 57 56 59 64 67 66 64 66 68 62 55 53 51 47 46 43 45 45 44 46 45 44 42 46 45 48
34 35 35 35 39 43 43 42 41 43 45 48 50 52 53 53 52 55 56 55 58 61 64 65 64 67 70 65 57 56 54 49 46 46 46 46 45 47 48 44 42 43 45
34 35 34 37 39 43 45 41 38 37 38 41 45 46 46 47 48 50 52 52 51 53 58 63 64 63 68 71 67 60 58 53 51 47 46 48 47 46 44 44 45 44 45

GFSGL_700_spd_087.txt.gz
Wind_Speed
22 20 19 17 16 15 14 14 14 11 7 6 4 9 5 3 6 6 3 3 5 5 4 4 10 14 12 16 26 27 25 25 22 21 24 11 9 9 10 12 14 15 14
22 21 19 17 16 15 13 13 12 11 10 8 9 9 6 8 8 5 4 5 4 4 2 2 4 6 11 14 11 14 23 28 29 28 26 20 18 17 17 15 15 14 13
28 25 22 18 17 15 12 11 11 11 11 9 8 8 8 11 8 7 7 6 6 7 7 6 5 5 7 9 10 11 11 12 18 24 28 29 26 20 18 18 16 15 13
27 25 23 22 21 18 15 15 14 13 12 12 11 11 10 9 9 9 9 10 9 9 9 9 7 7 8 9 8 8 11 13 14 15 13 14 15 17 18 18 16 14 13
27 27 24 23 21 22 22 20 19 18 16 15 15 13 12 12 12 11 11 10 10 10 10 10 10 9 11 11 10 9 10 11 11 12 11 11 10 12 14 13 15 15 15
30 27 30 15 25 23 25 24 21 21 19 19 18 16 15 13 12 14 14 14 13 12 11 10 10 11 11 10 11 13 14 14 13 13 12 12 11 13 15 17 18 19 18
26 27 16 18 18 17 21 22 23 21 23 21 20 20 19 17 16 15 16 16 16 16 15 15 15 14 15 14 13 14 15 16 17 16 16 15 16 15 20 20 21 20 18
6 11 17 20 18 23 24 21 22 24 25 25 26 26 25 21 21 21 20 21 21 20 20 20 20 19 18 19 19 18 18 18 19 21 22 19 20 19 21 24 23 21 18
16 23 24 26 27 27 29 27 28 27 29 29 29 29 27 26 25 25 24 24 25 25 26 25 24 25 22 21 23 25 25 23 22 24 25 24 25 26 27 28 25 27 23
15 13 19 22 20 16 19 27 33 33 33 31 29 29 30 29 29 29 29 29 28 28 27 26 26 26 27 26 28 28 29 26 27 29 30 29 28 27 27 30 30 29 28
14 15 16 18 16 15 15 14 13 16 20 27 31 33 33 35 32 30 28 27 31 33 33 32 30 30 30 32 32 32 32 32 33 33 33 34 34 33 32 32 33 34 33
23 24 24 23 23 23 22 21 19 18 18 17 19 26 33 36 35 33 33 33 32 32 34 33 34 33 31 33 33 33 35 37 36 36 38 38 36 33 32 33 34 33 32
28 29 29 28 30 30 30 30 28 26 25 24 23 21 22 30 38 39 39 38 34 33 32 31 31 31 29 31 34 34 37 37 37 37 36 36 37 35 34 33 32 32 33
23 25 26 27 27 28 30 32 34 33 33 31 30 30 29 27 27 31 36 41 42 43 43 41 37 34 31 28 28 32 36 40 41 41 39 38 38 38 35 32 32 29 31
22 23 25 26 28 29 30 30 30 30 32 35 36 37 36 34 34 35 35 34 36 40 45 43 41 40 40 39 33 35 38 38 41 41 42 41 42 41 37 32 32 32 32
22 21 20 20 21 22 23 22 24 26 28 31 34 36 38 42 43 43 41 41 41 41 39 39 41 44 42 42 44 44 46 44 43 40 40 45 42 41 40 37 35 36 34
19 21 20 20 20 20 21 22 22 22 23 25 27 29 33 37 40 44 47 48 46 47 46 43 44 41 41 42 45 47 48 45 45 47 49 46 39 41 40 37 34 32 32
19 19 20 21 21 22 24 25 27 28 27 26 28 32 34 36 37 40 45 48 51 52 51 50 47 45 41 41 42 43 45 44 43 45 48 49 53 49 45 40 33 28 29
18 20 22 23 25 26 28 30 31 32 33 35 35 35 37 39 41 42 44 46 50 53 55 55 55 51 47 45 43 42 43 44 40 42 46 47 46 50 47 49 46 32 30
23 24 25 26 27 29 31 33 34 36 37 38 40 42 44 46 45 46 46 48 49 51 55 57 60 58 53 51 50 46 44 42 40 39 41 44 42 46 40 27 28 27 30
20 22 24 26 28 31 33 36 37 39 42 43 44 44 46 49 49 51 51 51 52 53 55 59 61 63 64 59 54 52 48 43 40 41 40 39 43 44 52 39 29 31 31
19 21 23 25 26 28 30 33 37 41 45 48 50 52 52 53 53 55 56 57 56 56 56 60 62 65 66 66 62 57 55 51 45 42 44 42 40 41 46 44 41 38 33
16 18 20 23 27 31 34 37 41 45 47 50 52 55 56 57 58 58 58 60 60 61 60 62 65 65 67 67 66 67 63 58 52 48 44 47 43 42 41 45 46 41 40
18 19 22 24 28 33 36 39 42 46 49 52 54 56 58 59 60 60 60 60 61 62 62 64 66 66 66 69 66 64 67 66 62 55 50 48 49 43 43 42 40 39 41
23 24 27 30 32 34 35 37 42 47 47 48 49 51 52 54 56 58 57 56 56 58 60 61 63 64 63 66 67 65 64 65 65 63 57 54 53 51 46 43 43 41 40
25 26 28 32 35 38 40 40 43 47 47 44 42 42 43 46 48 50 51 50 51 51 54 56 57 58 58 59 62 65 64 62 61 62 63 60 57 54 50 46 43 43 43

GFSGL_700_spd_090.txt.gz
Wind_Speed
14 19 21 19 18 19 20 18 16 12 9 10 8 8 6 5 6 5 6 5 6 6 7 9 17 24 28 27 26 26 25 22 23 21 20 20 11 10 12 16 17 17 16
22 21 19 18 18 17 17 15 13 10 10 10 11 9 9 6 7 6 6 6 5 6 5 5 6 9 15 17 15 20 31 29 26 27 27 25 24 22 23 21 20 19 16
25 23 21 21 20 18 16 14 13 12 12 13 12 10 10 11 12 10 10 7 7 7 5 5 5 5 7 9 13 15 17 19 21 20 22 27 28 29 30 25 22 18 16
28 27 25 25 23 20 19 18 17 14 13 13 13 12 11 12 11 10 12 11 10 8 9 7 7 8 8 9 10 9 11 13 14 16 16 15 19 22 24 21 19 18 15
22 27 28 26 26 25 25 23 20 19 17 16 15 14 13 13 12 12 11 11 12 11 11 11 12 11 10 10 12 13 10 10 12 12 11 11 11 14 16 15 16 16 13
20 28 36 31 27 27 28 26 26 22 21 20 19 17 15 14 13 13 13 13 14 14 14 14 13 13 13 12 12 13 14 13 14 14 13 12 11 14 16 18 18 18 14
24 19 30 31 31 36 31 28 26 24 25 24 23 22 20 19 17 17 16 17 17 16 17 17 17 16 15 14 15 15 15 15 15 16 15 14 15 15 18 20 21 21 18
21 11 14 12 30 24 23 31 24 24 25 25 24 25 24 23 22 21 22 22 21 19 18 18 19 19 19 20 20 20 19 19 19 20 20 18 19 18 21 23 24 23 21
19 12 10 6 9 6 10 18 20 18 22 24 25 25 25 26 26 25 26 26 26 25 24 22 21 21 20 23 26 26 26 25 25 25 25 26 26 26 27 28 27 27 25
12 12 14 18 14 20 23 25 26 29 24 24 31 31 30 31 29 29 27 28 28 28 26 25 25 25 24 24 26 27 29 27 28 30 30 30 30 29 30 31 31 32 31
13 15 14 13 11 15 16 17 15 16 23 29 31 32 32 33 31 31 29 29 30 31 29 26 28 29 28 28 28 27 26 29 30 31 31 31 30 30 29 29 31 34 36
20 20 20 21 21 23 25 26 22 21 20 19 19 19 24 28 29 34 34 33 33 32 30 30 30 30 30 31 32 31 31 32 32 30 31 30 31 30 28 28 30 32 34
27 27 28 29 30 30 30 30 32 32 29 27 26 27 25 22 23 29 34 36 36 36 36 36 34 31 28 27 28 29 30 32 34 34 31 29 29 31 32 28 28 30 33
29 29 29 29 29 29 29 31 32 33 34 34 34 34 33 30 30 31 29 30 33 37 40 41 40 39 38 37 34 33 31 31 32 34 33 31 30 32 34 32 33 31 33
26 27 27 27 27 27 28 29 30 32 31 30 32 35 38 38 39 39 38 36 36 36 35 35 35 36 38 39 39 38 39 39 41 40 37 36 35 33 34 33 34 37 38
23 24 25 26 26 25 25 26 26 26 29 31 33 34 34 36 36 39 42 44 44 44 43 42 41 41 40 39 37 37 39 40 42 46 46 47 45 41 41 38 34 39 40
21 21 23 24 24 23 22 20 21 23 22 23 25 27 27 28 29 29 31 34 37 40 42 46 49 48 48 47 45 42 41 39 42 45 47 48 48 47 45 44 44 41 36
18 19 19 20 22 23 24 24 24 24 24 26 29 30 32 33 34 34 35 35 36 37 39 39 41 44 47 51 52 51 48 45 43 42 43 44 43 42 42 43 43 44 48
16 17 18 19 21 23 24 26 28 29 30 31 32 33 36 37 39 40 43 44 44 43 44 45 45 45 45 47 50 53 54 51 48 47 46 44 43 44 46 46 47 48 46
18 20 21 22 23 24 25 25 26 28 30 31 33 35 37 38 40 42 44 46 49 51 52 52 52 52 52 51 50 53 54 55 55 52 50 49 47 45 45 43 44 46 42
18 19 20 20 21 22 23 24 25 26 28 31 33 35 38 41 43 45 47 49 51 54 56 57 58 59 58 59 59 58 57 56 57 58 57 54 51 47 46 44 40 34 42
17 17 17 18 19 19 20 22 25 28 31 34 36 39 41 45 48 50 52 53 53 54 56 60 61 62 63 63 63 64 64 63 61 60 62 60 58 53 49 46 43 39 36
16 17 17 17 19 20 22 24 27 30 34 38 41 44 48 52 57 59 59 58 58 59 60 62 63 64 65 66 68 68 67 68 68 66 64 65 63 59 54 52 46 45 45
15 14 16 18 20 23 26 28 31 34 38 42 46 51 54 57 58 59 60 60 61 60 60 62 63 64 66 67 69 71 71 70 69 69 69 66 66 65 60 56 53 48 44
18 16 17 20 22 25 28 30 32 36 39 44 48 51 53 54 55 56 58 57 57 57 57 57 58 60 62 65 66 68 71 71 71 68 68 67 65 65 66 62 56 54 49
22 18 18 21 25 28 30 32 35 37 39 42 46 50 50 48 47 47 49 50 51 52 53 53 54 55 57 59 62 64 64 66 66 65 65 65 65 63 64 64 60 58 54

GFSGL_700_spd_093.txt.gz
Wind_Speed
13 15 18 18 16 18 17 15 13 11 11 11 13 11 8 6 7 6 6 7 9 10 11 13 17 22 25 27 25 24 24 25 24 21 23 23 22 21 17 19 19 20 21
18 18 20 21 20 20 19 18 16 15 16 15 13 11 10 9 8 7 8 8 8 10 9 10 12 15 22 25 28 28 29 26 26 23 21 25 26 28 28 26 26 24 22
25 23 23 23 23 21 18 17 16 15 16 16 15 13 12 12 11 11 10 10 9 10 10 10 11 9 10 14 18 19 21 20 21 22 21 20 22 27 29 28 26 25 22
32 27 25 24 22 20 20 19 18 16 16 16 15 15 14 15 15 15 14 13 13 12 12 12 13 12 11 12 12 11 14 16 17 17 16 16 16 18 20 21 19 21 19
25 24 28 26 25 23 23 23 21 20 18 17 17 16 16 16 16 15 15 15 15 15 14 14 15 15 15 15 14 14 13 12 14 14 11 11 12 13 16 18 18 17 15
43 25 34 27 27 29 29 27 26 25 23 22 21 19 18 16 16 17 16 16 17 16 16 15 15 17 18 19 18 15 16 16 16 16 15 14 13 15 18 19 20 20 16
11 18 23 27 33 37 33 31 30 28 27 25 24 24 24 22 21 19 19 19 19 17 17 17 18 18 18 18 18 18 18 18 19 19 19 17 18 18 22 22 24 24 21
14 15 23 17 18 36 39 33 30 35 29 26 24 26 25 25 25 23 23 24 23 22 21 20 20 20 21 22 23 23 22 22 22 23 24 21 22 22 25 27 27 26 25
9 16 10 7 10 20 28 36 30 34 31 24 28 29 26 25 26 27 28 28 27 26 26 24 24 24 23 25 27 27 26 26 26 27 28 28 27 27 28 29 28 31 30
9 15 14 8 10 12 12 5 3 6 28 28 21 23 25 28 25 28 30 30 30 30 28 27 26 25 25 24 27 28 28 28 29 30 29 29 30 28 28 29 28 30 31
13 14 14 14 18 18 18 19 17 17 19 21 29 29 26 27 28 37 35 33 34 34 32 29 31 29 29 27 28 31 32 32 32 32 31 29 28 27 26 26 27 29 31
13 14 15 15 15 17 18 18 17 17 19 18 21 22 23 28 29 32 35 36 35 33 33 32 31 33 29 28 28 30 33 34 35 37 35 33 31 29 28 29 29 29 30
21 23 23 23 23 23 24 24 24 25 25 28 31 31 29 27 26 25 25 25 28 30 33 34 35 35 35 34 33 32 30 31 32 33 34 34 32 32 32 33 32 32 31
26 26 27 28 29 31 31 32 33 34 34 36 37 37 37 39 37 34 31 30 30 30 28 29 32 35 37 38 37 38 39 40 40 38 36 34 33 32 33 33 33 34 35
28 27 27 26 26 26 28 29 30 31 33 32 33 34 35 37 39 40 39 38 39 39 37 37 36 35 35 36 35 34 34 35 38 41 43 43 43 42 40 39 37 38 39
26 25 25 25 25 24 24 24 25 27 29 31 31 30 31 33 33 34 35 36 38 38 40 42 43 45 45 45 45 44 43 41 40 39 38 40 43 45 44 44 46 46 44
24 24 24 24 23 23 23 23 22 21 21 22 23 24 23 23 24 25 26 27 28 30 32 32 33 34 35 38 42 45 48 49 49 47 45 44 43 42 42 44 45 44 43
21 21 20 21 21 20 20 20 21 21 21 22 23 25 26 29 31 32 33 33 34 35 37 37 38 39 39 39 39 39 40 42 44 47 49 49 48 47 46 44 44 44 45
20 20 20 20 21 21 21 20 21 22 23 25 26 27 27 29 31 34 37 40 43 44 45 46 47 48 49 50 49 48 49 47 46 46 47 48 49 50 50 49 48 47 45
20 20 20 20 21 22 23 25 26 26 26 26 28 29 30 31 32 34 36 39 41 43 47 51 53 55 56 58 58 58 59 59 57 56 53 51 51 51 53 54 53 51 49
22 22 23 23 24 25 25 25 25 26 27 28 29 31 32 33 35 38 40 42 45 48 50 53 56 57 59 60 62 63 65 66 66 65 64 63 60 57 56 56 56 55 53
23 23 23 23 23 23 23 23 23 24 25 26 28 30 32 34 36 39 41 44 45 48 54 59 60 62 66 67 68 68 69 69 70 70 70 69 69 67 64 61 59 59 58
21 22 22 22 22 22 22 22 22 23 24 27 29 31 33 35 37 40 45 50 53 57 61 61 62 63 64 66 69 72 74 76 75 75 76 75 73 72 71 69 65 62 60
20 21 21 21 21 21 22 22 24 25 26 29 31 33 35 38 42 46 50 54 54 56 58 60 61 62 63 64 65 66 68 71 74 76 77 78 78 77 74 74 71 67 64
20 19 20 22 22 22 23 23 25 26 27 29 31 33 36 40 44 48 53 54 54 53 55 56 56 57 58 59 59 61 64 66 67 69 72 74 76 76 76 73 73 71 67
21 19 20 22 21 21 23 24 26 27 28 29 32 34 37 39 43 47 50 51 51 51 53 53 52 52 53 53 54 55 57 60 63 63 65 68 68 68 69 69 68 69 68

GFSGL_700_spd_096.txt.gz
Wind_Speed
15 15 19 19 17 15 16 16 12 10 10 9 9 11 9 8 7 6 5 5 7 9 11 13 15 16 19 22 24 24 22 23 23 22 25 24 24 25 24 24 23 23 25
22 18 19 22 22 20 18 18 16 15 13 12 12 11 11 10 10 9 7 8 8 8 9 9 12 12 14 18 21 21 23 26 26 23 22 23 24 26 28 28 28 27 27
24 21 20 23 24 22 20 18 17 17 17 17 16 14 13 12 12 10 9 9 9 10 11 11 12 12 11 12 15 18 21 21 22 20 18 17 18 20 21 22 21 20 20
23 23 24 24 24 23 21 19 18 17 17 18 17 17 16 16 16 15 13 13 12 12 13 13 14 14 13 13 14 14 16 17 17 17 16 15 15 16 18 19 18 19 17
25 19 33 28 25 24 22 22 21 19 18 18 17 17 17 17 16 16 15 14 14 15 16 15 16 17 17 17 17 17 17 17 17 17 15 14 13 14 18 19 20 19 16
23 27 32 30 27 24 25 24 23 23 22 21 20 20 19 18 16 17 16 15 15 15 15 15 16 18 18 19 20 21 21 21 21 20 18 18 18 19 20 21 22 21 18
6 16 25 31 28 23 26 27 28 28 27 26 24 24 23 20 21 20 19 18 18 18 17 18 18 18 20 21 20 20 21 21 22 23 23 21 22 22 25 24 25 25 24
11 10 15 14 29 24 25 30 38 33 29 29 28 25 24 24 24 24 23 23 23 23 23 22 22 21 23 24 23 22 22 23 25 27 27 25 26 24 27 28 28 28 27
15 12 17 15 23 23 27 24 29 39 32 27 32 29 27 28 24 22 24 25 25 25 25 26 26 26 25 25 27 27 26 25 27 29 31 30 29 29 30 31 30 32 31
9 11 13 13 10 8 13 14 10 34 43 48 34 34 31 27 25 29 28 27 25 26 27 29 30 31 29 27 28 28 29 29 29 29 30 32 32 31 31 33 33 35 34
11 11 13 15 13 10 10 11 7 7 9 13 19 33 27 26 25 27 28 27 27 30 34 33 35 35 33 31 31 31 33 31 32 33 32 30 30 30 30 32 34 36 36
13 12 13 14 14 14 18 19 19 15 16 15 15 18 19 22 25 29 30 30 29 39 32 32 33 35 36 34 33 33 33 33 33 32 30 30 31 31 33 32 33 35 35
15 16 17 17 17 17 17 18 19 19 20 21 21 22 24 28 28 27 24 24 25 27 25 25 25 28 33 35 36 36 37 37 37 36 35 34 32 31 29 30 30 31 32
21 22 23 23 24 25 26 26 27 28 27 28 29 29 31 32 31 33 34 37 35 34 34 33 31 29 28 29 31 33 34 37 38 38 38 39 40 39 38 37 37 38 36
28 28 28 28 28 28 29 30 31 31 31 31 32 32 31 32 32 32 33 34 35 36 36 35 36 37 37 37 37 37 37 37 38 38 38 37 37 36 37 39 41 42 43
25 26 27 28 29 28 28 28 28 28 28 29 29 29 28 28 29 30 29 28 28 27 27 30 31 30 31 32 34 34 36 39 40 42 44 45 45 45 44 42 42 42 43
24 24 25 25 25 25 25 25 25 25 25 24 23 23 22 19 18 19 21 22 23 23 24 25 27 28 30 31 31 31 32 32 34 35 36 38 39 40 41 43 44 46 48
24 23 23 23 23 22 21 21 20 21 21 21 21 22 22 22 22 23 23 24 25 27 29 32 34 35 37 39 40 41 41 42 42 44 43 43 44 44 43 43 43 44 45
24 23 22 21 20 19 19 18 18 18 19 20 21 22 23 24 25 25 26 27 29 31 32 34 36 38 41 43 46 47 49 51 51 52 53 53 52 52 51 51 52 50 49
24 23 22 21 20 19 18 19 19 20 22 23 23 23 24 24 25 26 28 30 32 34 37 39 40 42 44 45 46 48 50 53 56 58 59 60 60 60 60 59 59 58 57
24 23 22 21 21 22 22 22 22 22 22 23 23 24 25 26 28 30 32 34 36 38 39 40 42 44 46 49 53 56 58 58 60 61 61 63 66 67 67 66 65 64 64
24 24 24 23 23 23 23 23 23 24 24 24 25 26 27 29 30 32 33 36 37 38 39 41 43 47 52 56 60 63 65 67 69 68 69 69 70 71 72 73 72 71 69
25 25 24 24 23 23 23 23 23 24 24 25 26 28 29 31 32 34 36 37 39 42 44 47 51 54 57 61 65 68 68 69 72 74 74 75 75 75 75 76 75 75 74
25 25 25 24 23 22 22 22 23 23 24 25 27 29 30 32 33 35 36 38 41 43 47 50 54 56 60 62 63 64 66 67 67 70 72 73 74 73 75 76 76 77 76
24 24 24 24 23 22 22 23 25 26 27 28 29 29 30 31 32 34 36 38 41 44 47 51 55 57 59 59 59 59 60 60 60 61 63 64 66 68 70 72 73 74 75
24 25 25 25 24 24 24 25 27 28 28 28 28 28 29 30 32 34 36 37 39 42 45 49 52 54 54 55 56 55 54 53 54 54 56 58 57 57 59 61 63 66 69

GFSGL_700_spd_099.txt.gz
Wind_Speed
17 16 15 19 20 20 19 19 16 15 13 12 9 9 7 6 6 7 7 6 5 6 7 10 13 14 15 15 17 19 21 23 23 23 23 25 26 27 27 27 26 25 27
24 21 18 18 23 23 21 21 20 16 14 14 13 10 11 10 9 9 9 8 8 7 6 8 9 10 10 11 14 15 18 20 22 22 21 21 20 21 23 24 22 22 21
30 28 24 20 22 24 23 22 21 19 18 17 17 14 13 12 13 12 11 10 10 9 8 11 10 10 11 11 12 12 13 15 16 18 18 17 17 18 19 20 19 18 18
34 32 28 23 21 23 24 23 22 21 20 19 20 18 16 17 16 14 14 14 12 12 11 11 12 12 13 13 14 14 14 15 16 17 18 16 15 16 18 19 16 16 16
32 32 34 26 22 22 23 24 23 21 18 18 18 18 18 18 18 17 17 15 15 14 14 14 14 15 16 16 16 17 18 17 18 19 20 18 17 18 21 22 22 19 17
21 16 27 25 22 28 23 24 23 21 20 20 19 19 19 20 18 17 17 15 14 15 15 16 16 17 18 17 18 18 19 20 20 21 20 20 19 21 23 24 25 24 22
13 12 17 29 30 29 25 23 23 20 22 23 23 23 22 22 20 18 18 18 16 17 18 18 18 20 18 18 19 19 20 21 21 23 22 21 22 23 25 25 27 28 26
18 13 7 14 24 25 21 21 21 22 26 27 28 28 25 24 24 21 21 23 23 22 23 22 22 22 22 22 23 22 22 23 24 25 27 26 26 26 27 29 29 29 29
18 15 13 14 15 20 30 28 26 30 29 30 35 30 29 26 23 22 22 22 22 22 24 25 26 25 25 25 25 26 26 26 26 27 28 29 28 29 30 31 30 32 30
18 16 10 14 15 16 20 25 27 24 31 39 35 28 25 26 28 27 23 27 23 23 21 25 26 25 25 29 30 29 27 27 27 28 28 29 30 32 31 32 31 32 32
18 14 15 14 14 12 10 8 11 4 5 2 18 29 40 47 48 38 35 37 33 29 28 28 30 30 33 35 33 33 33 31 30 30 30 29 27 28 30 32 32 33 35
20 16 14 16 17 17 17 16 14 13 12 14 14 15 12 12 22 25 31 22 23 25 27 31 33 35 42 31 30 32 33 33 32 32 33 33 32 29 28 29 31 30 30
13 14 15 16 16 16 16 16 17 18 17 17 17 17 16 16 20 20 20 27 24 22 24 24 25 27 29 25 24 24 28 31 32 34 34 35 36 36 36 34 34 36 35
15 14 15 17 17 18 19 20 21 21 21 22 22 22 23 25 27 26 26 27 29 31 32 34 33 32 31 31 30 30 30 30 30 31 31 32 32 31 32 33 33 33 33
19 19 21 22 23 24 25 26 26 28 28 28 29 29 29 28 29 29 30 30 30 31 32 31 30 30 28 27 26 27 28 30 32 34 36 38 39 38 38 39 40 41 41
19 20 20 23 26 28 29 29 29 31 30 29 29 29 28 28 28 28 27 27 26 25 23 22 22 21 21 21 21 22 23 24 26 28 29 31 32 33 33 33 35 36 37
22 23 23 24 25 26 26 27 28 28 27 27 27 26 25 23 22 21 21 21 20 19 19 20 20 22 23 25 26 27 28 29 31 34 35 37 37 38 39 39 40 40 41
25 24 25 25 25 25 25 26 26 25 25 26 26 25 24 22 20 20 20 21 21 22 23 24 25 27 28 29 31 32 33 35 37 38 40 42 44 45 45 46 47 48 48
23 24 24 24 23 23 22 21 20 20 21 21 22 21 21 21 21 21 22 22 22 23 24 26 28 30 32 33 35 36 37 38 39 41 43 46 49 51 52 53 53 53 54
22 21 21 21 20 20 20 20 19 19 19 19 20 21 22 22 21 21 22 22 24 26 28 30 32 33 34 35 36 36 36 38 40 43 45 48 49 53 55 58 60 60 60
22 21 20 19 19 18 18 19 19 20 21 21 21 21 21 21 22 23 24 26 28 30 31 33 34 35 36 37 38 40 43 47 49 50 52 54 58 60 58 59 61 63 65
23 23 23 22 20 20 20 20 20 21 21 21 21 21 21 22 23 25 27 28 30 31 33 35 37 38 40 41 44 46 48 52 53 56 58 61 66 68 68 69 69 69 69
22 24 23 23 22 22 21 21 20 20 20 20 21 22 22 23 25 27 29 31 32 34 36 37 39 41 43 45 48 50 54 58 60 63 66 71 74 73 72 72 73 73 72
24 24 24 24 23 22 21 21 21 21 21 22 22 22 24 26 28 30 31 33 34 35 37 38 40 41 43 46 48 50 54 58 61 66 69 70 71 70 70 70 69 68 68
26 26 26 25 23 23 22 22 22 21 21 22 24 24 26 28 29 30 32 33 34 35 37 38 40 42 43 45 47 50 52 56 59 61 63 63 62 61 61 62 63 62 60
33 29 26 27 27 25 24 23 22 22 22 23 25 26 27 28 30 30 31 32 34 36 38 39 40 41 42 44 45 46 49 52 54 56 56 54 52 51 51 53 54 54 52

GFSGL_700_spd_102.txt.gz
Wind_Speed
19 19 20 19 19 19 18 18 18 15 12 11 10 10 8 6 5 5 5 5 5 5 6 8 10 10 10 12 13 16 19 21 23 23 23 27 27 28 26 24 22 22 21
23 21 20 17 20 21 20 19 20 17 15 14 14 11 10 9 9 8 8 7 6 6 6 7 6 6 6 8 9 10 13 15 17 19 18 19 20 20 19 19 19 18 18
29 24 22 20 17 21 22 21 21 18 18 16 15 15 13 11 11 9 10 8 7 7 8 7 8 9 8 9 8 10 10 10 10 12 14 15 16 16 16 17 17 17 17
32 32 28 27 22 20 23 25 23 22 20 19 17 18 17 15 14 14 11 11 10 11 10 10 11 10 11 11 11 11 12 12 14 14 15 15 15 17 17 16 17 16 16
38 39 35 32 27 25 23 25 25 24 22 20 19 19 19 18 18 15 14 14 14 14 14 13 15 14 14 14 14 14 14 15 16 17 17 15 13 16 20 19 20 20 18
42 44 42 37 37 29 23 23 24 24 23 19 18 20 19 19 17 16 15 14 15 16 16 15 16 15 16 16 16 16 17 16 16 17 17 18 19 20 22 23 24 24 23
20 30 27 33 25 33 34 26 23 23 22 20 20 22 20 20 19 17 17 17 17 17 17 16 18 15 15 16 17 18 19 20 20 20 20 20 22 22 23 24 24 25 26
14 12 13 11 20 33 35 37 27 22 21 19 19 21 22 23 23 22 21 21 20 19 19 19 22 20 19 20 21 21 21 22 24 23 24 23 23 23 25 26 25 25 24
21 18 19 12 10 15 22 27 23 23 22 25 26 27 27 27 26 26 25 23 23 23 25 22 24 24 23 22 23 23 23 25 26 25 25 25 25 25 26 26 28 28 26
25 20 19 16 16 16 16 20 27 25 26 27 30 35 37 33 30 27 26 25 24 25 26 23 22 19 19 24 24 24 24 29 29 28 27 28 28 27 28 27 27 26 27
26 21 18 14 12 14 13 12 16 27 26 15 10 13 16 28 28 26 28 27 27 27 29 29 30 31 29 32 31 31 36 34 31 30 30 29 29 29 27 28 28 30 29
25 21 17 19 17 15 13 13 13 17 18 14 13 10 8 9 14 17 19 27 29 31 30 36 34 40 36 34 38 34 34 32 29 27 27 28 28 29 30 30 30 30 31
22 21 20 19 19 19 19 17 19 20 19 19 17 15 14 14 15 16 16 18 17 19 26 25 23 25 24 24 24 26 29 32 28 24 24 26 26 27 28 30 29 28 28
18 20 20 20 20 20 20 20 20 20 19 19 20 19 20 21 22 23 24 24 24 24 25 26 29 30 28 27 29 30 33 32 30 30 29 29 30 31 32 32 34 35 34
17 17 19 20 21 21 21 21 21 22 23 24 25 25 26 27 28 28 28 28 28 28 27 26 26 26 25 24 23 23 23 23 23 23 24 25 25 26 27 29 29 31 31
16 17 19 21 24 25 25 26 27 27 28 28 28 27 28 28 29 28 27 27 27 27 26 25 23 21 20 19 19 18 19 21 22 24 25 27 29 31 32 32 34 36 36
15 17 19 20 22 23 23 24 25 27 27 27 28 28 28 27 28 26 24 23 23 22 20 19 18 18 19 20 21 23 24 25 26 27 29 30 31 32 33 35 36 39 40
19 20 21 22 22 24 25 23 23 25 25 25 26 26 26 26 26 24 22 21 20 21 20 20 21 22 22 24 25 26 27 29 30 31 31 32 33 34 35 37 40 42 44
28 25 21 21 23 23 22 23 25 24 24 24 24 23 22 23 23 21 21 21 21 21 21 21 22 23 24 25 27 29 30 31 32 33 34 36 37 39 41 43 44 43 45
19 18 18 20 19 21 22 23 22 21 22 23 23 23 22 21 19 20 20 21 21 21 21 22 23 25 27 29 30 32 33 34 36 36 38 41 42 42 42 44 46 49 53
19 18 20 21 22 22 21 20 21 21 22 22 22 20 19 19 19 19 19 20 21 22 23 25 27 29 30 31 32 34 36 38 39 40 41 43 44 46 47 50 54 57 61
19 22 22 22 23 22 22 21 21 21 21 21 20 19 18 19 19 20 20 21 22 23 25 27 28 30 32 34 35 36 37 38 40 42 45 47 48 50 52 55 57 60 64
20 20 22 23 24 24 22 22 22 22 21 20 20 20 19 20 20 21 21 23 24 26 27 29 30 31 32 34 35 36 39 42 44 46 48 50 52 55 58 60 62 65 69
28 22 22 22 23 23 23 23 23 22 21 21 20 20 20 20 21 22 23 24 25 26 28 29 31 32 34 36 38 40 42 45 47 50 53 55 58 59 60 62 65 70 71
36 31 28 25 24 24 25 24 23 23 22 21 21 21 21 21 21 22 23 25 26 28 29 30 31 33 34 36 38 40 42 45 48 52 55 56 56 57 57 57 58 60 58
36 29 27 32 30 28 27 26 25 24 23 22 22 22 22 22 23 23 24 25 26 28 30 31 33 34 35 35 36 38 40 42 44 47 49 51 52 51 49 48 46 46 46

GFSGL_700_spd_105.txt.gz
Wind_Speed
19 20 22 23 22 21 18 20 18 10 9 9 9 8 8 7 5 5 5 7 5 5 6 7 9 9 10 10 12 11 12 12 14 16 22 22 23 25 18 17 16 14 15
16 19 19 21 21 20 19 17 18 15 14 11 13 11 10 10 8 8 8 8 8 7 6 6 6 6 7 7 9 8 9 10 12 13 13 13 10 21 19 14 15 12 13
23 23 21 21 18 18 21 20 19 18 18 15 14 13 12 11 9 9 10 9 9 8 7 6 7 7 7 8 8 8 9 9 6 10 12 13 13 15 22 18 20 19 14
36 33 28 23 21 20 19 21 23 20 19 17 17 16 16 14 14 12 12 11 10 10 9 8 9 10 9 10 9 10 11 11 13 11 12 12 12 13 15 17 12 14 17
30 41 36 30 27 25 23 22 22 23 21 20 19 19 18 17 19 15 14 14 13 14 14 13 12 13 12 12 12 12 12 13 13 11 13 11 10 13 17 19 17 18 17
29 26 38 35 32 29 28 24 23 24 24 23 21 20 20 21 14 15 16 16 15 15 14 14 14 14 13 12 12 11 12 13 13 14 15 15 16 17 18 19 20 20 21
23 22 28 38 40 40 35 32 31 28 21 23 22 21 19 18 17 15 16 17 16 15 15 15 14 15 15 15 15 16 16 16 17 17 18 17 18 20 20 20 20 20 20
22 18 18 27 31 34 36 38 38 28 19 21 23 21 19 18 18 18 18 19 18 18 18 18 20 20 19 19 20 20 19 20 19 19 21 21 22 21 21 21 21 20 18
21 15 12 12 11 15 22 24 31 35 32 28 22 20 20 20 22 22 21 21 20 21 21 21 22 22 21 21 21 21 20 20 22 20 22 24 24 24 25 24 23 22 21
24 22 18 16 16 12 10 16 24 34 33 31 29 21 20 27 32 31 27 24 23 22 22 22 23 23 20 19 20 22 22 23 25 30 32 27 28 27 28 27 25 25 25
28 27 24 19 17 17 17 15 13 18 25 24 23 24 17 15 20 29 30 30 25 24 25 26 23 23 27 31 31 31 31 36 35 33 32 28 28 28 29 29 28 26 27
30 26 26 23 19 13 14 15 16 15 24 23 21 18 14 10 5 5 10 12 18 21 24 26 32 34 31 32 30 33 30 29 27 25 23 26 24 24 26 26 28 25 26
29 28 28 24 20 18 17 14 13 13 17 20 19 17 16 14 12 11 11 11 12 14 15 17 18 22 25 24 24 25 28 28 27 26 25 27 28 27 26 26 26 28 28
27 26 26 24 22 21 21 19 20 19 20 21 20 20 19 18 18 18 18 19 20 21 23 23 24 25 27 27 28 26 27 26 25 23 22 22 22 22 23 22 22 23 23
25 24 22 23 24 22 21 21 19 19 20 22 23 23 23 25 24 26 26 26 26 25 26 26 24 24 25 25 24 24 21 18 17 17 19 20 21 22 24 25 27 27 28
17 18 19 20 20 22 22 22 23 24 25 26 27 27 28 28 28 27 28 27 27 27 27 27 25 22 21 20 19 18 17 18 19 21 23 25 26 27 28 30 31 31 31
15 13 15 18 21 23 25 26 27 27 28 29 29 29 28 29 28 27 27 26 24 24 24 24 22 19 18 17 18 18 20 21 23 25 27 27 28 29 29 30 31 32 33
18 14 13 16 19 21 23 24 25 25 27 26 26 25 25 25 25 25 24 24 23 22 22 22 21 20 20 20 21 22 24 25 25 27 28 29 30 30 32 33 35 38 39
20 17 20 22 21 21 21 22 23 25 26 25 24 26 25 25 25 24 23 23 23 23 23 22 22 22 22 22 23 24 26 27 28 29 30 32 34 35 37 39 40 42 43
22 24 22 24 25 26 26 25 26 26 24 26 24 23 20 22 22 22 22 22 22 23 23 22 22 21 21 22 23 25 27 28 30 32 33 35 36 37 39 41 43 45 46
19 20 21 23 25 26 29 26 24 24 23 21 21 20 21 21 21 21 21 21 22 21 20 19 19 20 21 23 24 26 27 29 31 32 33 34 35 37 40 42 45 47 48
19 19 20 21 22 22 23 23 23 23 23 22 24 21 21 22 22 21 21 21 21 21 20 20 21 22 24 25 26 28 29 30 31 33 34 36 38 40 42 45 48 50 53
22 20 19 18 20 23 23 23 23 23 25 25 26 23 21 22 23 22 22 22 21 21 21 22 23 25 26 27 29 30 31 32 34 36 37 38 40 42 45 47 49 51 53
26 27 25 25 22 22 23 24 25 26 26 27 26 25 24 24 24 23 22 22 21 21 22 22 24 25 27 28 29 31 32 34 35 35 36 38 40 41 44 47 49 52 55
30 31 29 28 29 26 24 23 25 26 27 27 28 26 26 24 23 23 21 21 21 22 23 23 24 25 26 27 29 31 32 33 34 35 35 37 39 41 44 45 47 48 50
33 34 31 28 29 29 28 24 25 26 27 28 26 27 26 25 23 23 22 21 21 23 23 23 23 25 27 28 28 30 31 32 33 34 35 36 37 38 40 40 40 42 43

GFSGL_700_spd_108.txt.gz
Wind_Speed
19 18 20 20 20 16 14 15 13 13 10 8 7 5 6 5 3 2 4 5 5 5 5 5 4 8 10 12 11 12 13 15 14 10 16 16 14 14 10 15 13 12 13
16 15 16 17 18 18 15 17 14 14 11 7 8 7 8 6 6 5 6 6 5 5 5 6 5 6 6 8 8 10 9 11 11 11 12 12 11 10 12 14 15 14 11
14 14 16 13 14 15 15 16 15 13 14 15 14 12 12 10 8 8 6 7 6 6 5 6 6 6 6 6 7 8 10 11 10 11 10 11 9 7 11 7 15 13 9
20 15 15 18 15 17 13 12 16 16 15 16 16 15 14 12 11 11 8 8 8 8 8 8 9 9 7 7 8 8 8 9 10 12 14 8 13 16 12 13 13 13 13
25 23 20 26 31 23 19 21 18 15 14 17 18 17 16 17 14 11 12 11 11 10 11 11 13 13 8 9 11 11 11 11 10 11 11 12 14 13 14 13 14 14 12
31 33 33 28 26 32 28 22 20 21 19 19 20 21 20 19 15 13 12 12 12 12 12 11 13 11 11 11 12 13 12 11 11 12 12 14 14 14 15 16 16 16 14
32 32 30 27 21 34 30 28 25 25 26 24 22 24 21 18 16 15 14 13 14 12 13 13 15 12 10 12 13 14 15 15 15 13 13 15 16 17 17 16 17 18 16
28 28 26 24 23 26 34 35 32 29 30 34 27 21 19 18 15 15 16 17 16 15 17 16 18 13 15 16 17 18 18 19 17 17 17 16 18 20 21 20 19 18 17
22 21 19 16 10 10 19 33 36 32 30 35 28 30 27 19 15 17 19 19 19 21 19 20 18 19 18 18 18 17 16 15 17 19 21 25 26 26 25 23 24 23 20
19 19 18 13 9 9 9 11 20 24 22 20 22 26 26 32 24 26 27 26 25 22 23 22 20 20 20 20 20 19 19 21 23 24 25 30 33 36 32 28 24 23 23
24 23 23 21 18 14 16 17 13 12 15 21 25 22 22 18 19 20 23 28 29 27 27 23 21 21 22 24 23 27 30 32 32 31 28 28 31 28 22 20 25 24 23
29 25 28 27 25 21 17 15 15 14 16 14 19 16 18 22 18 12 9 10 19 21 24 24 23 25 25 25 26 27 27 22 21 21 24 25 22 21 22 22 23 22 24
22 24 26 29 26 26 20 14 16 18 17 17 21 19 18 18 14 12 9 8 9 8 10 11 13 15 18 20 20 22 24 24 26 26 26 26 24 22 21 18 18 19 20
25 26 27 29 29 28 23 24 21 18 18 18 21 20 20 21 17 16 15 15 15 16 18 19 21 22 24 24 23 23 23 23 22 22 20 20 19 18 18 18 18 19 20
30 28 27 30 27 26 25 22 20 20 20 20 22 21 21 21 19 20 20 21 22 24 25 25 24 25 26 26 25 25 24 22 20 18 17 17 18 19 21 22 23 24 24
27 24 26 27 27 25 24 24 25 24 25 26 25 23 24 24 24 25 26 26 27 27 27 27 25 26 24 24 24 22 20 19 18 18 18 20 21 23 24 25 27 28 29
20 22 25 24 25 22 20 22 23 24 25 26 26 27 28 29 29 29 29 29 27 27 26 26 23 22 21 20 19 18 19 19 21 22 23 24 25 26 27 28 28 29 29
9 8 10 9 16 19 18 19 21 22 26 26 26 28 29 29 29 29 27 26 26 26 26 24 22 21 20 20 21 21 22 22 23 24 25 25 26 27 29 30 31 32 33
13 15 14 16 15 16 17 18 19 19 22 20 24 25 25 26 26 27 26 26 26 26 24 23 22 21 21 21 22 23 24 24 24 25 25 27 28 30 31 32 34 35 37
19 17 30 31 26 29 29 27 29 27 26 24 23 24 24 24 24 24 24 23 24 24 23 22 21 22 22 23 23 25 26 26 26 27 28 29 31 33 34 35 36 37 38
15 16 21 25 27 25 28 29 23 22 23 26 32 29 24 25 27 25 23 23 25 24 22 23 22 23 22 22 24 25 26 28 27 28 30 32 33 34 35 36 36 38 40
11 13 15 17 17 18 21 23 23 23 24 27 30 24 24 24 26 26 25 24 24 23 22 23 24 24 23 24 25 26 27 28 28 29 30 32 33 34 35 36 36 37 40
17 17 16 16 17 17 17 18 20 21 23 26 26 24 23 24 26 26 24 23 22 23 22 22 23 24 23 24 25 26 27 27 29 30 31 32 33 34 34 36 37 38 40
21 26 29 25 22 20 19 17 18 20 21 23 25 27 23 22 24 26 24 25 23 24 23 23 23 24 24 25 26 27 27 28 29 30 31 31 32 33 33 34 36 37 38
25 23 24 26 29 25 23 22 21 21 22 22 24 25 24 24 26 28 24 25 24 23 23 23 23 23 24 25 26 26 28 29 29 29 30 30 31 32 33 34 34 33 32
30 26 26 25 30 27 28 27 24 24 26 24 24 21 24 26 25 26 27 25 25 24 24 24 24 23 23 24 25 25 25 27 27 28 29 30 30 31 32 31 29 27 27

GFSGL_700_spd_111.txt.gz
Wind_Speed
19 20 22 21 20 18 13 13 14 8 7 7 9 5 5 5 4 4 4 3 3 2 2 3 2 8 11 13 12 10 12 12 9 5 5 3 5 4 2 8 8 4 3
19 18 22 23 23 20 17 15 13 10 10 8 6 6 9 7 7 6 5 4 4 6 4 2 2 4 3 5 6 7 8 5 5 3 4 2 7 5 4 5 7 11 10
14 14 16 18 18 16 17 18 15 12 12 13 12 10 10 9 8 8 7 4 5 5 5 5 4 4 4 3 4 6 5 5 5 4 4 7 7 7 6 7 7 6 7
23 14 12 13 12 11 11 13 16 14 13 14 14 14 14 15 12 10 8 7 7 8 7 6 6 5 2 5 6 6 7 9 8 8 5 5 8 7 5 4 5 7 7
28 24 12 13 17 14 14 17 17 13 13 16 15 16 16 15 13 11 10 11 10 10 10 10 9 8 8 6 7 7 6 6 7 7 7 8 9 9 9 10 11 9 10
27 27 24 18 21 24 25 24 24 21 15 13 15 20 18 15 14 14 13 13 13 12 11 13 9 7 7 7 7 8 8 7 8 9 9 9 10 12 13 14 14 13 11
19 26 23 24 28 29 25 23 25 30 20 19 17 17 19 21 18 16 15 14 14 14 13 15 11 9 9 10 11 11 12 11 11 13 13 13 12 12 12 15 17 17 17
24 23 26 27 29 29 28 26 32 25 21 19 19 22 23 22 18 16 16 16 16 14 15 14 14 13 15 15 14 14 14 14 14 13 15 15 16 17 16 18 19 19 20
28 27 28 28 25 23 24 22 28 31 29 29 26 27 22 26 29 28 21 15 17 18 18 19 19 18 18 18 17 17 16 16 15 16 18 19 23 24 25 28 30 27 22
24 27 26 21 18 12 7 5 11 22 31 34 29 23 25 21 23 27 26 25 20 22 22 20 19 20 20 20 19 19 19 21 20 22 28 30 28 29 26 24 21 21 20
21 19 18 17 17 17 13 11 12 14 14 17 19 17 17 16 21 26 26 27 27 28 26 24 22 22 23 22 21 21 23 25 27 30 28 26 22 20 21 22 21 21 20
20 20 22 22 21 21 21 16 15 15 13 11 14 15 16 14 18 19 17 17 15 14 15 20 23 25 24 24 25 23 19 19 18 19 22 23 25 24 23 22 21 22 25
28 28 31 29 26 24 26 23 20 17 18 16 17 16 17 12 20 15 17 15 10 9 9 8 11 13 16 17 17 18 20 20 20 23 25 23 22 20 17 16 15 15 19
20 19 19 22 25 23 24 24 23 19 18 18 16 16 18 17 17 18 18 17 15 15 15 15 16 18 19 21 22 23 22 23 24 24 24 23 21 19 18 16 15 16 18
24 23 25 27 28 22 21 23 19 22 21 20 18 15 16 19 21 22 22 21 21 22 22 23 24 24 25 25 25 24 24 24 25 24 22 21 20 21 21 20 21 21 22
28 24 25 25 30 31 24 24 23 23 24 25 24 22 22 24 25 25 26 26 26 26 27 27 28 29 29 29 28 25 25 24 22 21 20 20 20 20 21 23 24 25 26
25 24 21 25 30 29 27 25 26 24 28 29 27 26 26 27 27 27 28 28 28 30 31 30 29 29 27 27 26 23 21 21 21 21 20 21 23 24 24 26 26 27 28
18 20 18 17 14 19 19 24 27 26 23 26 28 31 28 28 27 28 28 29 29 31 30 28 26 24 24 24 23 22 21 22 23 21 22 24 26 27 27 28 29 30 31
13 14 10 9 10 12 13 15 20 22 19 17 19 22 23 25 25 24 25 26 28 28 26 25 23 22 22 22 22 22 22 23 23 23 24 26 27 27 28 28 29 31 32
14 17 20 18 21 24 27 27 28 29 29 29 24 21 20 16 18 20 21 23 25 26 25 23 22 22 22 21 23 24 24 23 22 24 26 26 27 28 29 31 32 33 34
15 19 16 16 18 20 23 25 25 24 25 24 21 23 34 36 36 35 35 28 27 26 25 22 24 25 23 23 24 25 26 23 24 26 26 27 29 30 32 33 34 34 35
9 9 11 12 12 12 15 15 17 19 24 30 29 27 26 25 28 30 29 26 29 28 29 29 30 29 24 24 26 27 25 23 25 26 27 29 30 32 32 33 33 34 34
13 12 11 12 14 15 16 17 17 17 17 20 23 22 21 21 22 25 26 24 22 25 25 26 28 28 24 25 25 26 23 25 26 27 29 30 31 31 32 32 32 32 33
17 20 20 20 19 16 15 16 18 18 18 18 20 20 21 20 19 22 23 22 22 23 23 24 26 26 24 25 24 23 24 25 26 28 28 29 30 30 30 30 31 32 32
19 22 25 25 25 25 23 20 20 20 19 20 19 21 21 22 21 22 22 22 23 23 23 22 23 24 23 24 24 24 24 25 26 27 27 27 28 29 29 29 29 30 31
24 23 24 24 22 28 26 28 23 20 19 19 18 22 23 22 20 21 23 24 23 23 23 23 23 23 22 23 23 23 24 25 25 26 27 28 28 28 28 28 28 28 28

GFSGL_700_spd_114.txt.gz
Wind_Speed
15 17 20 20 18 16 14 13 10 9 7 8 8 11 10 11 9 8 9 7 8 10 11 10 11 14 17 16 13 12 13 12 9 9 7 7 7 3 3 6 6 5 8
19 15 19 22 19 19 17 15 12 11 11 11 10 12 12 12 10 8 8 7 7 8 7 7 8 7 8 10 13 13 10 6 4 4 6 7 7 6 6 9 6 7 9
20 14 18 18 18 16 16 15 14 14 14 15 16 15 14 13 11 12 11 9 8 6 7 10 8 8 8 8 9 9 9 9 5 5 8 8 6 5 9 9 9 9 10
27 20 16 16 18 17 13 14 15 17 18 18 19 19 17 12 13 13 13 10 10 9 8 8 7 7 10 10 11 10 9 9 8 7 8 8 6 7 8 8 8 11 11
30 27 22 19 20 22 17 15 12 15 17 19 19 18 17 15 15 15 13 12 14 11 12 10 8 9 8 9 12 12 10 10 8 8 8 9 11 10 8 8 8 10 11
34 28 28 22 22 19 17 21 19 18 19 18 18 19 18 16 15 16 15 15 15 15 16 11 9 8 11 11 11 9 9 9 9 10 11 11 12 11 10 10 10 8 9
21 31 31 31 24 17 20 19 23 17 27 19 18 16 18 19 21 21 19 18 18 16 17 15 12 11 13 13 12 12 12 12 12 13 13 13 14 13 13 14 15 15 14
22 21 21 20 25 23 19 22 26 24 24 30 25 25 26 21 18 20 25 22 20 19 18 18 16 16 16 16 15 15 16 15 15 15 14 15 13 14 16 18 20 23 25
26 21 23 23 24 23 22 26 25 26 25 30 25 26 24 18 21 24 29 24 22 22 20 19 19 20 19 20 18 18 17 17 17 17 18 20 20 21 23 23 22 21 24
35 29 29 27 27 26 22 15 13 11 18 25 25 27 26 26 28 27 28 28 24 21 19 19 20 20 21 22 20 20 20 21 21 21 23 25 28 30 24 18 15 15 15
28 35 31 23 21 14 15 15 12 10 9 13 20 24 26 25 25 22 20 20 26 27 29 31 29 27 25 23 21 21 21 21 22 25 28 26 20 18 21 20 18 19 17
13 10 12 15 16 15 19 20 17 14 14 16 16 18 20 23 20 20 23 24 24 21 27 25 23 20 22 24 24 25 24 25 24 21 21 21 22 22 24 25 23 21 18
16 16 18 17 16 16 17 20 22 21 19 16 16 19 19 17 20 22 21 18 17 18 15 13 15 18 18 18 19 20 21 20 21 23 22 22 22 22 22 22 20 18 18
22 23 22 24 25 24 23 24 17 16 20 19 17 16 18 19 23 19 20 20 18 18 19 16 14 13 14 15 17 20 23 25 26 25 24 24 23 21 19 18 19 19 21
11 14 15 14 18 23 22 22 26 24 21 19 16 17 19 18 22 22 23 23 23 23 24 22 21 20 20 22 23 24 25 26 27 26 25 24 22 20 19 20 21 22 22
12 17 17 19 16 22 25 25 25 20 25 26 16 18 19 20 24 26 27 27 27 28 28 28 27 27 26 26 27 27 28 27 24 23 23 22 22 22 22 22 23 24 26
20 20 17 21 23 24 26 28 23 24 27 30 27 25 23 27 27 26 28 29 31 32 31 31 30 29 30 29 27 27 27 24 22 22 21 21 22 22 23 24 26 27 28
16 20 19 22 22 25 27 26 29 27 26 24 24 28 31 25 27 30 37 35 32 32 32 31 29 28 28 27 26 25 26 23 22 21 22 23 24 25 26 26 27 27 29
12 13 11 12 12 13 12 16 23 17 16 16 18 20 23 24 25 25 25 30 32 29 28 27 26 25 26 27 26 25 24 23 23 23 25 26 26 26 27 28 28 29 30
15 17 17 17 19 20 19 19 21 23 25 26 26 25 27 31 29 31 31 30 28 23 20 21 22 24 23 23 24 23 23 24 25 26 26 27 27 28 28 28 28 29 30
11 15 17 18 19 21 23 22 24 26 26 24 24 23 23 26 24 24 28 29 32 31 26 23 22 21 22 22 23 24 23 24 26 28 28 27 28 28 27 28 29 31 32
9 9 9 11 13 14 15 16 16 18 20 22 23 25 26 26 28 28 27 29 31 29 31 32 31 29 30 28 29 30 27 26 28 28 27 26 27 27 28 29 30 31 32
14 12 12 12 13 14 15 16 17 18 20 21 21 21 21 22 24 26 25 26 24 23 25 26 27 27 26 25 26 25 26 26 26 26 26 26 27 28 29 29 30 31 32
18 20 20 20 21 20 19 17 17 17 18 21 22 20 20 21 20 23 23 21 21 22 22 24 25 25 23 22 24 25 25 25 25 25 26 26 27 28 28 29 29 30 30
20 22 23 22 21 22 22 23 20 18 18 21 23 22 20 21 21 21 22 21 20 21 22 24 24 25 23 23 24 24 24 24 24 24 24 25 26 27 27 28 28 29 30
25 25 26 27 26 27 26 22 27 28 24 24 20 19 19 19 18 20 21 19 18 18 19 21 23 23 22 23 24 24 23 24 23 24 25 26 26 28 28 28 28 28 28

GFSGL_700_spd_117.txt.gz
Wind_Speed
11 16 16 14 14 14 13 12 11 11 10 9 11 14 13 11 9 11 13 13 13 13 11 14 16 16 15 13 11 8 8 9 8 11 8 6 5 6 7 6 13 14 12
15 15 16 17 17 18 15 15 14 14 14 12 10 12 12 12 12 12 12 12 11 10 12 12 13 12 11 10 11 11 10 9 8 9 8 9 8 7 7 8 14 12 13
19 19 20 19 17 17 18 18 18 17 15 13 13 11 14 15 13 14 14 13 12 12 10 11 13 13 12 11 11 10 8 9 9 10 11 11 9 7 8 9 11 11 13
22 20 18 18 19 17 19 20 20 19 19 17 16 18 16 15 15 15 16 16 14 13 12 10 11 13 12 12 12 12 11 11 11 11 12 12 10 10 9 9 12 12 15
25 25 22 23 20 21 20 19 20 17 19 24 23 20 21 19 18 20 18 16 16 17 14 14 12 13 14 12 15 14 13 14 13 13 12 12 10 11 10 9 11 12 13
27 26 28 29 30 26 26 24 20 19 11 24 24 24 23 22 20 19 18 18 16 16 16 16 15 16 16 17 15 15 16 15 15 14 14 14 13 13 12 9 8 9 10
33 28 22 31 34 30 25 27 23 20 28 15 25 23 23 21 21 21 19 18 17 18 18 17 17 18 18 18 17 17 17 16 16 16 17 17 16 15 14 14 15 17 16
37 33 25 30 35 39 30 24 25 29 20 22 22 31 29 26 23 22 22 21 21 22 21 21 20 20 20 20 19 19 18 18 18 19 19 17 16 16 15 17 20 24 25
29 24 24 28 32 43 35 27 28 25 26 25 23 23 29 30 29 27 24 20 22 25 24 22 20 20 22 22 21 21 21 21 20 19 20 19 19 20 23 26 26 26 26
29 30 27 26 22 21 24 27 19 22 23 21 20 18 22 25 24 28 24 24 26 31 32 33 30 19 19 21 22 23 23 22 22 22 22 23 23 26 27 24 19 18 20
20 34 36 33 31 30 28 29 24 18 13 9 13 19 19 22 26 27 27 24 27 26 21 20 19 20 23 24 26 26 26 26 24 25 25 26 28 24 20 18 20 21 21
12 9 15 20 30 23 13 11 17 14 11 12 14 14 16 17 20 19 17 16 18 20 23 23 22 26 26 28 28 31 32 26 24 29 24 26 25 25 23 23 22 19 18
14 12 7 10 9 12 9 11 16 17 18 17 16 14 13 16 18 16 17 23 22 22 19 18 17 18 21 21 23 28 26 22 20 19 22 25 27 28 26 24 23 20 18
11 10 11 11 14 16 12 12 15 16 14 12 15 16 15 19 18 18 19 23 22 21 20 18 16 15 14 14 15 15 16 19 22 25 26 27 27 27 27 25 23 21 20
12 14 17 18 19 21 23 16 18 15 17 16 19 19 17 18 19 19 23 25 23 23 22 20 20 20 20 20 21 22 23 24 26 26 27 28 27 26 25 23 22 22 22
9 8 10 14 12 13 13 17 18 18 16 15 16 21 25 24 19 17 20 23 23 25 25 25 25 25 25 26 27 28 27 27 27 28 27 27 26 25 24 23 23 23 23
11 9 18 17 19 16 18 20 25 25 24 19 24 26 21 22 22 25 20 23 27 29 28 26 26 27 30 30 30 30 29 28 26 25 26 26 24 23 23 24 25 26 27
10 10 12 12 12 16 17 19 23 23 26 25 27 27 28 32 28 23 28 29 28 25 27 27 27 26 28 30 30 29 28 27 26 26 25 24 24 24 25 26 27 27 28
14 12 10 9 9 12 13 13 15 17 21 21 21 21 22 19 21 21 22 20 25 25 22 24 23 27 28 27 26 26 27 25 25 26 26 25 25 25 26 27 27 27 28
10 11 12 13 14 14 15 16 17 17 18 20 21 21 23 25 27 28 28 31 27 26 27 27 24 28 27 26 26 25 23 25 25 24 24 25 26 26 26 27 27 28 28
8 10 12 14 15 17 16 16 17 18 20 21 23 24 24 23 24 26 26 27 25 25 27 27 26 27 27 29 28 23 22 22 25 24 24 25 26 26 26 26 26 27 29
10 10 11 12 13 14 14 15 16 18 19 19 20 20 20 21 23 23 24 26 26 26 26 28 27 28 30 31 29 28 27 27 29 29 29 29 29 28 28 27 28 28 29
15 14 14 14 14 14 16 17 18 20 20 21 21 21 21 21 22 23 22 22 21 22 23 24 26 27 26 25 26 26 27 27 28 27 25 25 26 27 26 26 27 28 29
20 19 19 18 20 21 23 23 23 23 22 22 22 21 21 22 23 23 23 22 21 21 21 21 23 24 23 22 23 24 24 24 24 23 23 24 24 24 24 25 26 26 27
25 25 23 23 23 22 22 23 24 22 22 24 24 25 22 23 24 24 25 24 21 20 21 22 23 22 21 22 22 22 22 22 22 23 23 23 22 23 23 24 25 25 27
18 22 25 28 30 30 29 28 26 27 27 25 27 28 24 19 18 18 19 19 18 19 18 17 18 18 17 17 18 20 20 20 21 22 21 21 20 21 22 23 24 26 27

GFSGL_700_spd_120.txt.gz
Wind_Speed
12 14 17 17 17 16 14 15 13 12 13 13 14 14 16 14 13 13 14 15 16 15 14 12 12 13 13 12 12 11 11 11 10 10 10 7 7 9 8 8 9 13 11
13 12 14 16 18 17 16 16 16 15 13 15 10 10 15 16 15 13 12 12 14 13 13 12 11 11 10 10 9 9 9 9 8 9 9 8 9 9 10 11 12 14 13
20 17 15 18 20 19 20 21 20 19 17 17 17 16 14 17 17 14 13 13 14 12 12 12 14 11 12 11 11 10 9 9 9 10 11 11 11 9 10 12 14 14 15
25 22 22 20 18 18 19 23 23 22 22 22 21 19 19 19 18 17 16 16 15 13 12 12 12 11 13 13 13 13 12 12 11 12 13 13 11 9 9 11 13 16 17
26 26 24 20 19 17 18 22 25 25 24 24 24 23 22 22 20 20 20 19 16 16 18 18 16 14 13 15 14 14 15 14 14 14 13 13 11 10 10 10 10 12 14
28 28 30 29 26 27 23 20 23 25 24 25 23 23 24 24 24 24 22 22 20 18 18 18 18 17 18 17 18 17 18 18 18 16 14 14 13 13 13 13 13 15 15
35 32 33 38 31 32 28 31 25 25 26 24 18 18 27 27 26 27 24 21 20 21 19 19 20 20 20 19 19 19 19 19 18 18 17 15 15 15 15 17 16 15 17
39 37 37 41 41 30 32 32 31 28 31 30 27 24 24 30 28 28 28 24 22 22 20 19 20 21 21 21 21 21 22 20 20 20 19 19 17 17 17 18 20 22 24
33 38 37 39 46 27 30 33 30 30 33 34 29 28 26 25 36 34 35 27 23 24 25 25 25 25 26 23 22 23 23 21 21 21 21 21 20 19 21 23 25 28 30
22 23 22 43 27 29 30 33 32 35 32 27 25 26 24 28 29 42 35 36 27 24 26 26 28 29 30 29 24 21 22 23 23 23 24 23 23 22 22 24 25 22 21
16 15 20 20 24 23 23 22 24 30 32 24 23 17 17 17 13 9 24 24 29 32 29 27 27 28 29 33 26 25 23 23 25 24 25 25 25 24 24 20 20 21 22
8 4 4 10 15 24 19 28 16 20 26 14 11 13 13 11 15 19 21 20 24 23 20 18 16 18 21 24 28 28 32 34 29 30 30 28 29 27 23 21 19 20 22
11 7 3 4 4 4 14 36 26 23 15 13 14 18 15 12 10 11 14 18 20 20 19 18 20 21 18 16 19 20 23 28 37 35 31 29 24 22 23 23 21 22 22
11 6 9 10 10 7 4 8 13 9 11 13 13 12 13 13 12 16 15 17 15 17 18 20 20 18 18 17 16 18 17 16 16 16 20 23 24 25 25 24 23 23 22
14 11 10 8 8 8 8 10 13 15 17 18 19 17 15 17 19 19 18 18 19 21 22 20 20 19 19 19 19 20 21 22 23 24 25 25 26 27 27 26 24 23 22
12 14 12 15 16 16 15 16 15 17 20 22 20 19 16 16 19 22 23 18 19 21 21 22 23 22 24 24 25 26 26 28 28 28 28 28 28 27 26 25 24 23 22
11 10 11 14 14 12 18 16 14 14 18 22 20 18 21 23 22 26 26 22 25 29 25 26 26 27 28 30 27 28 28 30 30 29 29 29 28 27 25 25 24 23 23
10 11 12 12 14 19 20 18 17 18 20 20 20 21 22 23 24 26 23 24 25 26 25 23 28 25 23 26 26 26 29 30 31 30 29 28 27 26 25 24 24 25 25
9 10 12 14 13 12 12 12 18 20 21 20 21 22 22 23 24 24 22 24 23 18 16 16 20 29 24 23 23 25 29 30 27 27 27 26 26 25 24 24 25 25 26
8 9 10 11 13 14 14 14 16 16 17 17 18 18 20 22 24 26 25 24 26 28 29 29 27 22 20 20 23 25 27 28 25 24 23 22 22 23 24 24 24 23 24
6 6 7 9 10 10 11 12 13 14 15 16 17 18 20 22 24 26 26 26 25 23 22 21 21 24 27 30 31 31 30 29 23 23 22 23 23 20 21 23 24 24 24
10 10 10 10 11 11 11 12 12 13 14 15 15 16 17 18 20 20 21 21 21 20 21 22 23 25 26 28 29 30 30 30 29 29 25 26 26 28 25 27 25 28 31
17 16 16 16 15 14 14 15 16 18 19 18 18 19 18 18 19 20 20 21 21 20 19 19 21 23 23 24 24 23 23 22 22 21 21 23 23 23 23 24 24 24 25
18 19 20 20 19 19 19 20 21 21 21 20 20 21 21 21 21 21 22 23 23 20 18 19 20 21 21 21 21 20 19 18 18 18 19 19 20 20 21 21 21 22 22
19 19 20 21 22 22 22 21 20 21 23 26 25 25 25 22 19 21 21 21 20 19 18 19 20 21 19 18 17 17 18 18 17 17 18 18 19 19 19 19 19 19 20
18 18 19 20 22 24 25 26 27 26 26 27 25 22 25 26 20 19 20 20 20 22 22 18 18 18 16 14 13 13 14 15 15 16 17 18 18 18 18 17 19 20 21

GFSGL_700_spd_123.txt.gz
Wind_Speed
10 15 17 19 19 18 17 17 15 13 12 14 14 15 16 19 17 14 15 14 13 14 13 14 14 12 12 12 12 10 11 11 11 10 10 7 6 7 8 7 10 12 11
11 12 14 17 19 19 18 18 18 18 16 15 16 13 12 14 17 16 16 15 13 13 13 12 12 11 10 9 8 8 9 10 9 9 8 7 8 9 10 9 11 12 11
14 13 11 11 16 18 18 19 20 20 20 20 18 17 17 16 17 18 16 16 14 12 12 12 11 10 10 10 9 9 7 8 8 9 9 9 10 11 11 11 12 14 13
21 19 18 17 16 14 18 21 23 25 25 24 23 21 19 19 17 18 18 18 16 16 15 14 13 9 11 13 13 12 11 10 11 11 11 11 11 10 11 13 15 15 15
26 28 24 22 21 21 21 20 21 24 27 27 26 25 23 23 21 21 22 22 19 18 17 18 19 18 14 13 14 15 14 16 14 14 12 11 12 12 12 12 15 17 16
32 34 32 26 29 26 26 28 25 24 25 27 27 27 26 25 24 24 25 24 23 21 20 21 18 18 18 16 16 18 18 17 15 14 13 12 13 14 15 15 16 17 19
33 38 38 28 33 37 40 34 33 30 27 26 27 26 26 26 23 28 30 28 26 25 24 23 21 20 23 21 19 19 19 18 16 15 15 14 15 15 16 17 16 17 19
39 37 38 37 37 36 43 40 37 43 31 29 27 26 26 28 27 30 34 31 28 26 26 24 23 22 22 23 23 22 22 21 19 19 19 18 17 18 18 18 19 21 23
37 42 41 46 44 41 42 43 41 38 33 32 32 33 32 34 34 29 33 34 30 29 28 27 25 26 27 26 26 26 26 25 21 22 21 22 22 21 21 21 21 23 25
13 4 15 14 22 36 37 42 35 34 31 30 29 31 32 35 29 27 31 33 40 37 34 30 29 32 31 32 32 31 29 29 26 24 24 25 25 23 22 23 24 24 26
14 9 11 14 16 18 16 23 23 31 31 31 32 32 32 24 20 21 25 25 39 35 36 34 31 31 33 32 30 35 33 32 29 27 29 27 25 24 24 24 25 25 23
14 12 6 6 4 10 10 16 15 13 19 20 22 29 19 11 8 15 10 12 6 16 23 30 32 31 25 23 21 19 21 30 27 29 31 30 31 34 34 32 29 26 24
11 9 6 6 6 7 8 7 4 9 20 20 17 21 13 7 10 7 9 16 13 17 20 16 17 15 19 20 19 19 23 30 31 29 29 31 34 33 35 34 26 25 29
16 15 14 13 12 6 6 4 6 5 4 8 8 11 20 12 13 15 23 19 17 19 22 20 16 16 19 19 20 21 23 21 18 20 19 16 17 21 22 23 25 26 25
18 16 17 11 10 11 12 9 11 11 10 12 15 16 15 20 17 18 17 19 18 17 18 20 20 21 24 23 23 22 22 21 21 22 22 24 24 25 25 25 26 28 27
12 12 15 16 17 15 15 12 14 17 17 16 16 15 19 22 19 18 14 22 22 21 19 26 27 27 26 26 26 26 27 27 26 26 28 28 28 28 28 27 28 28 27
12 12 11 14 12 11 9 13 18 17 16 18 16 17 17 22 16 22 25 27 23 23 25 25 33 26 29 32 30 30 29 30 28 27 26 27 26 27 29 28 26 26 25
11 8 13 10 12 13 16 18 16 16 14 16 18 19 18 18 16 18 21 23 20 24 22 23 28 31 30 29 30 31 32 29 27 26 26 29 28 24 23 24 24 24 23
8 10 10 11 11 12 12 12 13 14 17 16 16 18 18 18 19 21 22 23 25 26 25 25 24 27 33 29 31 30 31 32 29 28 24 22 24 23 23 23 23 23 24
7 8 9 11 12 13 13 14 14 15 15 16 16 17 18 18 18 19 21 21 21 20 21 21 22 23 24 26 27 28 28 26 25 26 25 23 23 24 24 22 20 18 20
5 6 7 8 9 9 10 11 12 12 13 14 15 16 17 18 18 19 20 20 21 21 22 23 24 24 24 24 24 25 27 27 27 26 24 18 20 22 21 22 25 29 29
10 10 10 10 9 9 10 10 11 11 12 13 14 15 16 17 18 19 20 21 21 21 21 20 21 22 23 24 26 26 28 29 28 28 28 27 28 31 29 29 30 30 27
11 13 14 16 16 15 14 14 15 16 17 18 18 17 17 18 19 20 21 23 23 23 22 21 21 22 22 23 23 23 23 23 23 23 24 24 24 24 25 25 25 23 23
14 14 14 15 17 17 18 19 18 19 19 18 19 19 20 21 22 23 24 24 24 22 21 21 20 22 23 23 22 21 21 21 21 20 20 20 21 21 21 21 21 21 21
16 16 15 14 15 16 18 20 22 22 21 22 22 23 24 24 24 23 22 23 22 22 21 19 18 19 20 21 20 19 19 19 19 19 19 19 19 19 19 19 19 19 18
14 15 15 16 16 16 17 19 20 22 23 23 23 24 25 24 24 21 25 23 23 23 24 24 23 22 21 20 20 18 16 15 15 15 15 15 16 17 18 18 18 18 17

GFSGL_700_spd_126.txt.gz
Wind_Speed
11 15 18 19 19 18 17 18 17 15 15 13 14 13 15 15 16 17 15 15 14 15 15 13 12 12 12 11 11 11 9 9 10 7 11 8 7 8 8 8 10 6 7
9 7 12 16 18 19 18 17 18 17 17 16 14 15 15 15 16 16 17 17 15 15 15 14 13 11 8 9 9 9 8 9 9 9 8 9 9 8 8 6 9 7 8
15 11 9 11 12 14 16 17 18 19 19 19 19 19 18 19 16 14 18 19 18 15 15 13 12 11 11 10 9 9 9 8 8 9 10 11 11 10 10 9 11 10 9
18 16 14 13 12 12 13 16 18 19 21 23 23 23 23 21 20 19 18 18 18 17 17 15 15 14 15 13 13 12 11 10 10 11 12 13 12 11 11 12 11 14 12
24 24 22 21 21 20 18 18 19 22 22 22 24 26 27 25 23 22 21 21 21 20 20 20 19 18 17 17 15 15 14 13 13 14 14 14 13 12 12 13 13 15 16
33 31 30 30 30 29 25 24 25 26 26 24 23 25 26 27 27 25 24 24 25 24 24 24 23 21 21 20 17 16 17 15 14 15 13 15 15 14 14 15 14 16 18
39 39 33 32 32 30 35 33 35 31 32 32 31 25 25 26 26 27 26 28 29 29 28 26 25 25 21 22 22 20 21 20 18 17 16 15 16 16 16 15 17 17 18
39 42 36 36 38 40 35 34 39 38 39 38 46 30 29 28 27 27 30 24 27 28 32 31 28 27 26 25 24 23 23 20 20 21 20 19 18 18 18 19 18 19 21
28 29 36 38 40 40 35 34 38 47 39 43 33 36 42 36 32 32 32 27 31 36 35 33 29 28 26 26 25 24 24 23 24 25 23 22 20 20 21 21 21 20 20
19 22 22 22 26 29 25 34 38 36 38 34 33 37 38 40 39 39 37 35 36 32 34 34 33 33 29 28 28 27 28 29 28 28 27 25 24 23 22 22 22 23 22
11 11 11 13 17 19 25 27 19 24 26 23 22 26 32 41 39 37 34 32 31 29 28 35 39 42 38 30 29 30 30 34 32 32 32 29 28 27 25 24 23 24 26
17 17 17 14 12 12 13 13 14 15 15 11 14 28 22 29 30 30 26 27 23 13 18 31 45 34 32 36 34 32 32 32 30 27 31 30 29 28 29 30 31 30 30
14 13 13 11 10 8 8 11 9 8 8 19 19 18 21 23 20 16 12 17 28 14 18 10 12 20 19 26 21 26 26 24 22 23 27 30 33 32 33 35 34 31 32
15 15 15 17 16 13 10 9 9 9 7 3 5 6 13 14 13 12 13 16 19 18 21 19 18 22 20 19 20 22 19 21 25 26 25 25 28 25 22 22 21 24 27
12 15 16 16 16 15 16 15 15 12 10 8 10 11 11 18 16 14 15 22 21 22 18 24 24 26 25 26 23 24 26 26 27 25 24 25 25 26 25 26 27 27 27
16 15 13 12 12 13 14 14 14 10 12 16 15 15 16 16 18 20 20 19 19 19 21 25 25 24 25 29 30 29 33 28 29 30 29 30 31 33 32 29 28 28 27
11 12 11 13 14 13 11 12 12 14 16 14 15 14 13 17 20 20 19 22 24 18 19 22 27 24 28 29 31 32 35 36 31 31 32 31 31 29 26 25 24 25 25
10 10 12 13 10 12 15 13 12 13 15 14 13 12 12 15 17 16 15 16 19 20 23 23 21 23 24 28 26 27 28 30 32 33 35 34 35 37 41 36 29 26 25
7 7 8 8 8 9 10 12 12 12 12 13 15 15 16 16 16 17 17 17 17 18 19 19 20 21 21 22 23 24 26 24 24 24 23 23 22 23 22 18 19 22 22
6 7 7 8 9 9 9 10 10 11 12 12 13 12 12 12 13 14 15 15 16 17 17 18 19 21 21 22 23 24 24 23 24 25 25 26 25 24 24 21 22 22 24
4 4 5 5 6 6 7 8 9 9 10 10 11 12 12 13 13 14 15 16 16 17 18 18 19 20 21 22 23 24 25 25 26 27 27 27 25 25 23 22 23 22 20
10 10 9 9 10 10 10 10 10 11 12 13 14 15 16 16 16 17 18 19 19 20 21 21 20 21 21 22 22 23 25 27 28 28 27 27 26 25 25 27 28 30 32
11 12 13 14 15 15 16 15 15 14 15 16 16 18 19 19 20 21 23 24 25 24 24 23 22 21 23 22 23 23 24 25 26 25 26 25 24 24 23 24 24 25 24
12 13 13 14 14 15 17 18 19 19 19 19 19 19 20 20 21 22 22 23 24 24 24 24 23 22 23 21 23 22 24 24 24 24 23 23 22 21 21 21 21 20 20
11 12 13 13 13 14 15 16 17 18 18 18 19 20 20 20 20 21 22 24 23 22 24 24 22 22 22 22 21 23 22 22 21 21 20 19 18 18 18 18 18 19 18
12 13 13 14 14 14 14 13 15 16 16 15 16 19 23 21 21 20 20 22 23 22 23 23 23 24 25 25 24 22 21 19 19 18 15 14 13 13 14 15 17 17 18